Time,TemperatureF,DewpointF,PressureIn,WindDirection,WindDirectionDegrees,WindSpeedMPH,WindSpeedGustMPH,Humidity,HourlyPrecipIn,Conditions,Clouds,dailyrainin,SoftwareType,DateUTC
2013-03-03 00:00:00,48.6,44.9,29.99,NW,319,0.0,0.0,87,0.00,,,0.01,Wunderground v.1.15,2013-03-03 05:00:00,
2013-03-03 00:02:00,48.8,45.1,29.99,NW,319,0.0,0.0,87,0.00,,,0.01,Wunderground v.1.15,2013-03-03 05:02:00,
2013-03-03 00:03:00,48.9,45.2,29.99,NW,319,0.0,0.0,87,0.00,,,0.01,Wunderground v.1.15,2013-03-03 05:03:00,
2013-03-03 00:08:00,49.0,44.7,29.99,NW,319,0.0,0.0,85,0.00,,,0.01,Wunderground v.1.15,2013-03-03 05:08:00,
2013-03-03 00:09:00,49.0,44.7,29.99,NW,319,0.0,0.0,85,0.00,,,0.01,Wunderground v.1.15,2013-03-03 05:09:00,
2013-03-03 00:10:00,48.9,44.6,29.99,NW,319,0.0,0.0,85,0.00,,,0.01,Wunderground v.1.15,2013-03-03 05:10:00,
2013-03-03 00:11:00,49.0,44.7,29.99,NW,319,0.0,0.0,85,0.00,,,0.01,Wunderground v.1.15,2013-03-03 05:11:00,
2013-03-03 00:14:00,48.9,44.3,29.98,NW,319,0.0,0.0,84,0.00,,,0.01,Wunderground v.1.15,2013-03-03 05:14:00,
2013-03-03 00:16:00,48.7,44.1,29.98,NW,319,0.0,0.0,84,0.00,,,0.01,Wunderground v.1.15,2013-03-03 05:16:00,
2013-03-03 00:18:00,48.6,44.3,29.98,NW,319,0.0,0.0,85,0.00,,,0.01,Wunderground v.1.15,2013-03-03 05:18:00,
2013-03-03 00:19:00,48.6,44.3,29.98,NW,319,0.0,0.0,85,0.00,,,0.01,Wunderground v.1.15,2013-03-03 05:19:00,
2013-03-03 00:21:00,48.4,44.1,29.98,NW,319,0.0,0.0,85,0.00,,,0.01,Wunderground v.1.15,2013-03-03 05:21:00,
2013-03-03 00:23:00,48.3,44.0,29.98,NW,319,0.0,0.0,85,0.00,,,0.01,Wunderground v.1.15,2013-03-03 05:23:00,
2013-03-03 00:25:00,48.2,43.9,29.98,NW,319,0.0,0.0,85,0.00,,,0.01,Wunderground v.1.15,2013-03-03 05:25:00,
2013-03-03 00:26:00,48.1,43.8,29.98,NW,319,0.0,0.0,85,0.00,,,0.01,Wunderground v.1.15,2013-03-03 05:26:00,
2013-03-03 00:30:00,48.1,44.1,29.98,NW,319,0.0,0.0,86,0.00,,,0.01,Wunderground v.1.15,2013-03-03 05:30:00,
2013-03-03 00:32:00,48.2,44.2,29.98,NW,319,0.0,0.0,86,0.00,,,0.01,Wunderground v.1.15,2013-03-03 05:32:00,
2013-03-03 00:36:00,48.3,44.3,29.98,NW,319,0.0,0.0,86,0.00,,,0.01,Wunderground v.1.15,2013-03-03 05:36:00,
2013-03-03 00:37:00,48.3,44.3,29.98,NW,319,0.0,0.0,86,0.00,,,0.01,Wunderground v.1.15,2013-03-03 05:37:00,
2013-03-03 00:41:00,48.2,43.9,29.98,NW,319,0.0,0.0,85,0.00,,,0.01,Wunderground v.1.15,2013-03-03 05:41:00,
2013-03-03 00:43:00,48.2,43.9,29.98,NW,319,0.0,0.0,85,0.00,,,0.01,Wunderground v.1.15,2013-03-03 05:43:00,
2013-03-03 00:45:00,48.2,43.9,29.98,NW,319,0.0,0.0,85,0.00,,,0.01,Wunderground v.1.15,2013-03-03 05:45:00,
2013-03-03 00:47:00,48.3,44.0,29.98,NW,319,0.0,0.0,85,0.00,,,0.01,Wunderground v.1.15,2013-03-03 05:47:00,
2013-03-03 00:49:00,48.5,44.2,29.98,NW,319,0.0,0.0,85,0.00,,,0.01,Wunderground v.1.15,2013-03-03 05:49:00,
2013-03-03 00:50:00,48.6,44.3,29.98,NW,319,0.0,0.0,85,0.00,,,0.01,Wunderground v.1.15,2013-03-03 05:50:00,
2013-03-03 00:52:00,48.7,44.4,29.98,NW,319,0.0,0.0,85,0.00,,,0.01,Wunderground v.1.15,2013-03-03 05:52:00,
2013-03-03 00:54:00,48.8,44.2,29.98,NW,319,0.0,0.0,84,0.00,,,0.01,Wunderground v.1.15,2013-03-03 05:54:00,
2013-03-03 00:56:00,49.0,44.4,29.98,NW,319,0.0,0.0,84,0.00,,,0.01,Wunderground v.1.15,2013-03-03 05:56:00,
2013-03-03 00:58:00,49.0,44.4,29.98,NW,319,0.0,0.0,84,0.00,,,0.01,Wunderground v.1.15,2013-03-03 05:58:00,
2013-03-03 01:00:00,49.2,44.6,29.98,NW,319,0.0,0.0,84,0.00,,,0.01,Wunderground v.1.15,2013-03-03 06:00:00,
2013-03-03 01:01:00,49.4,44.8,29.98,NW,319,0.0,0.0,84,0.00,,,0.01,Wunderground v.1.15,2013-03-03 06:01:00,
2013-03-03 01:05:00,49.8,44.8,29.98,NW,319,0.0,0.0,83,0.00,,,0.01,Wunderground v.1.15,2013-03-03 06:05:00,
2013-03-03 01:07:00,49.9,44.9,29.98,NW,319,0.0,0.0,83,0.00,,,0.01,Wunderground v.1.15,2013-03-03 06:07:00,
2013-03-03 01:10:00,49.9,44.6,29.98,NW,319,0.0,0.0,82,0.00,,,0.01,Wunderground v.1.15,2013-03-03 06:10:00,
2013-03-03 01:11:00,49.9,44.6,29.98,NW,319,0.0,0.0,82,0.00,,,0.01,Wunderground v.1.15,2013-03-03 06:11:00,
2013-03-03 01:12:00,50.0,44.7,29.98,NW,319,0.0,0.0,82,0.00,,,0.01,Wunderground v.1.15,2013-03-03 06:12:00,
2013-03-03 01:13:00,50.0,44.7,29.98,NW,319,0.0,0.0,82,0.00,,,0.01,Wunderground v.1.15,2013-03-03 06:13:00,
2013-03-03 01:16:00,50.1,44.5,29.98,NW,319,0.0,0.0,81,0.00,,,0.01,Wunderground v.1.15,2013-03-03 06:16:00,
2013-03-03 01:17:00,50.1,44.5,29.98,NW,319,0.0,0.0,81,0.00,,,0.01,Wunderground v.1.15,2013-03-03 06:17:00,
2013-03-03 01:19:00,50.2,44.6,29.98,NW,319,0.0,0.0,81,0.00,,,0.01,Wunderground v.1.15,2013-03-03 06:19:00,
2013-03-03 01:21:00,50.2,44.6,29.98,NW,319,0.0,0.0,81,0.00,,,0.01,Wunderground v.1.15,2013-03-03 06:21:00,
2013-03-03 01:24:00,50.3,44.7,29.98,NW,319,0.0,0.0,81,0.00,,,0.00,Wunderground v.1.15,2013-03-03 06:24:00,
2013-03-03 01:27:00,50.4,44.8,29.98,NW,319,0.0,0.0,81,0.00,,,0.00,Wunderground v.1.15,2013-03-03 06:27:00,
2013-03-03 01:29:00,50.4,44.8,29.98,NW,319,0.0,0.0,81,0.00,,,0.00,Wunderground v.1.15,2013-03-03 06:29:00,
2013-03-03 01:32:00,50.5,44.9,29.98,NW,319,0.0,0.0,81,0.00,,,0.00,Wunderground v.1.15,2013-03-03 06:32:00,
2013-03-03 01:34:00,50.6,45.0,29.98,NW,319,0.0,0.0,81,0.00,,,0.00,Wunderground v.1.15,2013-03-03 06:34:00,
2013-03-03 01:38:00,50.8,44.9,29.98,NW,319,0.0,0.0,80,0.00,,,0.00,Wunderground v.1.15,2013-03-03 06:38:00,
2013-03-03 01:39:00,50.8,44.9,29.97,NW,319,0.0,0.0,80,0.00,,,0.00,Wunderground v.1.15,2013-03-03 06:39:00,
2013-03-03 01:40:00,50.9,44.9,29.97,NW,319,0.0,0.0,80,0.00,,,0.00,Wunderground v.1.15,2013-03-03 06:40:00,
2013-03-03 01:43:00,51.0,45.0,29.98,NW,319,0.0,0.0,80,0.00,,,0.00,Wunderground v.1.15,2013-03-03 06:43:00,
2013-03-03 01:46:00,51.1,44.8,29.98,NW,319,0.0,0.0,79,0.00,,,0.00,Wunderground v.1.15,2013-03-03 06:46:00,
2013-03-03 01:48:00,51.2,44.9,29.97,NW,319,0.0,0.0,79,0.00,,,0.00,Wunderground v.1.15,2013-03-03 06:48:00,
2013-03-03 01:50:00,51.3,45.0,29.97,NW,319,0.0,0.0,79,0.00,,,0.00,Wunderground v.1.15,2013-03-03 06:50:00,
2013-03-03 01:51:00,51.3,45.0,29.97,NW,319,0.0,0.0,79,0.00,,,0.00,Wunderground v.1.15,2013-03-03 06:51:00,
2013-03-03 01:54:00,51.4,45.1,29.96,NW,319,0.0,0.0,79,0.00,,,0.00,Wunderground v.1.15,2013-03-03 06:54:00,
2013-03-03 01:56:00,51.4,44.8,29.97,NW,324,0.0,0.0,78,0.00,,,0.00,Wunderground v.1.15,2013-03-03 06:56:00,
2013-03-03 01:59:00,51.5,44.9,29.96,NW,325,0.0,0.0,78,0.00,,,0.00,Wunderground v.1.15,2013-03-03 06:59:00,
2013-03-03 02:00:00,51.5,44.9,29.96,NW,325,0.0,0.0,78,0.00,,,0.00,Wunderground v.1.15,2013-03-03 07:00:00,
2013-03-03 02:01:00,51.5,44.9,29.96,NW,325,0.0,0.0,78,0.00,,,0.00,Wunderground v.1.15,2013-03-03 07:01:00,
2013-03-03 02:05:00,51.6,44.6,29.97,NW,325,0.0,1.0,77,0.00,,,0.00,Wunderground v.1.15,2013-03-03 07:05:00,
2013-03-03 02:06:00,51.6,44.6,29.97,NW,325,0.0,1.0,77,0.00,,,0.00,Wunderground v.1.15,2013-03-03 07:06:00,
2013-03-03 02:07:00,51.6,44.6,29.96,NW,325,0.0,1.0,77,0.00,,,0.00,Wunderground v.1.15,2013-03-03 07:07:00,
2013-03-03 02:10:00,51.8,44.8,29.96,NW,325,0.0,2.0,77,0.00,,,0.00,Wunderground v.1.15,2013-03-03 07:10:00,
2013-03-03 02:11:00,51.8,44.8,29.96,NW,325,0.0,2.0,77,0.00,,,0.00,Wunderground v.1.15,2013-03-03 07:11:00,
2013-03-03 02:12:00,51.8,44.8,29.96,NW,325,0.0,2.0,77,0.00,,,0.00,Wunderground v.1.15,2013-03-03 07:12:00,
2013-03-03 02:14:00,51.9,44.9,29.96,NW,324,0.0,2.0,77,0.00,,,0.00,Wunderground v.1.15,2013-03-03 07:14:00,
2013-03-03 02:16:00,51.9,44.6,29.96,NW,325,0.0,2.0,76,0.00,,,0.00,Wunderground v.1.15,2013-03-03 07:16:00,
2013-03-03 02:17:00,52.0,45.0,29.96,NW,324,0.0,2.0,77,0.00,,,0.00,Wunderground v.1.15,2013-03-03 07:17:00,
2013-03-03 02:19:00,52.1,44.8,29.96,NW,324,0.0,0.0,76,0.00,,,0.00,Wunderground v.1.15,2013-03-03 07:19:00,
2013-03-03 02:21:00,52.2,44.9,29.96,NW,324,1.0,1.0,76,0.00,,,0.00,Wunderground v.1.15,2013-03-03 07:21:00,
2013-03-03 02:22:00,52.2,44.9,29.96,NW,324,0.0,1.0,76,0.00,,,0.00,Wunderground v.1.15,2013-03-03 07:22:00,
2013-03-03 02:24:00,52.3,45.0,29.96,NW,311,1.0,3.0,76,0.00,,,0.00,Wunderground v.1.15,2013-03-03 07:24:00,
2013-03-03 02:27:00,52.3,45.0,29.96,NW,323,4.0,4.0,76,0.00,,,0.00,Wunderground v.1.15,2013-03-03 07:27:00,
2013-03-03 02:28:00,52.3,45.0,29.96,NW,319,1.0,4.0,76,0.00,,,0.00,Wunderground v.1.15,2013-03-03 07:28:00,
2013-03-03 02:29:00,52.3,45.0,29.96,NNW,331,4.0,4.0,76,0.00,,,0.00,Wunderground v.1.15,2013-03-03 07:29:00,
2013-03-03 02:32:00,52.3,45.0,29.96,NNW,331,0.0,4.0,76,0.00,,,0.00,Wunderground v.1.15,2013-03-03 07:32:00,
2013-03-03 02:33:00,52.4,45.1,29.96,NNW,331,0.0,4.0,76,0.00,,,0.00,Wunderground v.1.15,2013-03-03 07:33:00,
2013-03-03 02:34:00,52.4,45.1,29.95,NNW,331,0.0,4.0,76,0.00,,,0.00,Wunderground v.1.15,2013-03-03 07:34:00,
2013-03-03 02:38:00,52.4,45.1,29.95,NNW,331,0.0,4.0,76,0.00,,,0.00,Wunderground v.1.15,2013-03-03 07:38:00,
2013-03-03 02:39:00,52.4,45.1,29.95,NNW,331,0.0,0.0,76,0.00,,,0.00,Wunderground v.1.15,2013-03-03 07:39:00,
2013-03-03 02:40:00,52.3,45.3,29.95,NNW,331,0.0,0.0,77,0.00,,,0.00,Wunderground v.1.15,2013-03-03 07:40:00,
2013-03-03 02:43:00,52.3,45.3,29.95,NNW,329,0.0,2.0,77,0.00,,,0.00,Wunderground v.1.15,2013-03-03 07:43:00,
2013-03-03 02:44:00,52.3,45.3,29.95,NNW,329,0.0,2.0,77,0.00,,,0.00,Wunderground v.1.15,2013-03-03 07:44:00,
2013-03-03 02:46:00,52.3,45.3,29.95,NNW,329,0.0,2.0,77,0.00,,,0.00,Wunderground v.1.15,2013-03-03 07:46:00,
2013-03-03 02:49:00,52.2,45.2,29.96,NNW,329,0.0,5.0,77,0.00,,,0.00,Wunderground v.1.15,2013-03-03 07:49:00,
2013-03-03 02:51:00,52.2,45.5,29.95,NNW,329,0.0,0.0,78,0.00,,,0.00,Wunderground v.1.15,2013-03-03 07:51:00,
2013-03-03 02:54:00,52.2,45.5,29.95,NNW,328,0.0,2.0,78,0.00,,,0.00,Wunderground v.1.15,2013-03-03 07:54:00,
2013-03-03 02:55:00,52.2,45.9,29.95,NNW,328,0.0,2.0,79,0.00,,,0.00,Wunderground v.1.15,2013-03-03 07:55:00,
2013-03-03 02:56:00,52.2,45.9,29.95,NNW,328,4.0,4.0,79,0.00,,,0.00,Wunderground v.1.15,2013-03-03 07:56:00,
2013-03-03 02:59:00,52.2,45.9,29.95,NNW,328,0.0,0.0,79,0.00,,,0.00,Wunderground v.1.15,2013-03-03 07:59:00,
2013-03-03 03:00:00,52.2,45.9,29.95,NNW,328,0.0,0.0,79,0.00,,,0.00,Wunderground v.1.15,2013-03-03 08:00:00,
2013-03-03 03:01:00,52.2,46.2,29.95,NNW,328,0.0,1.0,80,0.00,,,0.00,Wunderground v.1.15,2013-03-03 08:01:00,
2013-03-03 03:02:00,52.2,46.2,29.95,NNW,328,0.0,1.0,80,0.00,,,0.00,Wunderground v.1.15,2013-03-03 08:02:00,
2013-03-03 03:04:00,52.1,46.1,29.95,NW,322,0.0,4.0,80,0.00,,,0.00,Wunderground v.1.15,2013-03-03 08:04:00,
2013-03-03 03:05:00,52.2,46.2,29.95,NW,323,0.0,4.0,80,0.00,,,0.00,Wunderground v.1.15,2013-03-03 08:05:00,
2013-03-03 03:06:00,52.1,46.1,29.95,NW,323,0.0,4.0,80,0.00,,,0.00,Wunderground v.1.15,2013-03-03 08:06:00,
2013-03-03 03:07:00,52.1,46.1,29.95,NW,323,0.0,4.0,80,0.00,,,0.00,Wunderground v.1.15,2013-03-03 08:07:00,
2013-03-03 03:10:00,52.1,46.1,29.95,NW,323,0.0,0.0,80,0.00,,,0.00,Wunderground v.1.15,2013-03-03 08:10:00,
2013-03-03 03:11:00,52.2,46.5,29.96,NW,323,0.0,0.0,81,0.00,,,0.00,Wunderground v.1.15,2013-03-03 08:11:00,
2013-03-03 03:13:00,52.2,46.5,29.96,NW,323,0.0,0.0,81,0.00,,,0.00,Wunderground v.1.15,2013-03-03 08:13:00,
2013-03-03 03:15:00,52.2,46.5,29.95,NW,323,0.0,1.0,81,0.00,,,0.00,Wunderground v.1.15,2013-03-03 08:15:00,
2013-03-03 03:16:00,52.2,46.5,29.96,NW,323,0.0,1.0,81,0.00,,,0.00,Wunderground v.1.15,2013-03-03 08:16:00,
2013-03-03 03:17:00,52.2,46.5,29.96,NW,323,0.0,1.0,81,0.00,,,0.00,Wunderground v.1.15,2013-03-03 08:17:00,
2013-03-03 03:19:00,52.2,46.5,29.96,NW,323,0.0,1.0,81,0.00,,,0.00,Wunderground v.1.15,2013-03-03 08:19:00,
2013-03-03 03:20:00,52.2,46.5,29.96,NW,323,0.0,1.0,81,0.00,,,0.00,Wunderground v.1.15,2013-03-03 08:20:00,
2013-03-03 03:22:00,52.1,46.4,29.96,NW,321,0.0,1.0,81,0.00,,,0.00,Wunderground v.1.15,2013-03-03 08:22:00,
2013-03-03 03:24:00,52.2,46.5,29.96,NW,321,0.0,1.0,81,0.00,,,0.00,Wunderground v.1.15,2013-03-03 08:24:00,
2013-03-03 03:26:00,52.2,46.5,29.96,NW,323,1.0,4.0,81,0.00,,,0.00,Wunderground v.1.15,2013-03-03 08:26:00,
2013-03-03 03:27:00,52.2,46.5,29.96,NW,323,0.0,4.0,81,0.00,,,0.00,Wunderground v.1.15,2013-03-03 08:27:00,
2013-03-03 03:29:00,52.2,46.5,29.96,NW,324,0.0,4.0,81,0.00,,,0.00,Wunderground v.1.15,2013-03-03 08:29:00,
2013-03-03 03:30:00,52.2,46.5,29.96,NW,322,0.0,0.0,81,0.00,,,0.00,Wunderground v.1.15,2013-03-03 08:30:00,
2013-03-03 03:32:00,52.2,46.5,29.96,NW,325,0.0,1.0,81,0.00,,,0.00,Wunderground v.1.15,2013-03-03 08:32:00,
2013-03-03 03:34:00,52.2,46.5,29.96,NW,314,0.0,6.0,81,0.00,,,0.00,Wunderground v.1.15,2013-03-03 08:34:00,
2013-03-03 03:35:00,52.2,46.5,29.96,NNW,329,1.0,6.0,81,0.00,,,0.00,Wunderground v.1.15,2013-03-03 08:35:00,
2013-03-03 03:37:00,52.2,46.5,29.96,NW,305,0.0,6.0,81,0.00,,,0.00,Wunderground v.1.15,2013-03-03 08:37:00,
2013-03-03 03:38:00,52.2,46.5,29.96,NW,305,0.0,6.0,81,0.00,,,0.00,Wunderground v.1.15,2013-03-03 08:38:00,
2013-03-03 03:40:00,52.1,46.4,29.96,NNW,340,0.0,0.0,81,0.00,,,0.00,Wunderground v.1.15,2013-03-03 08:40:00,
2013-03-03 03:41:00,52.1,46.4,29.96,NNW,340,0.0,0.0,81,0.00,,,0.00,Wunderground v.1.15,2013-03-03 08:41:00,
2013-03-03 03:43:00,52.1,46.8,29.96,NNW,340,0.0,0.0,82,0.00,,,0.00,Wunderground v.1.15,2013-03-03 08:43:00,
2013-03-03 03:45:00,52.0,46.7,29.96,NNW,340,0.0,0.0,82,0.00,,,0.00,Wunderground v.1.15,2013-03-03 08:45:00,
2013-03-03 03:46:00,52.0,47.0,29.96,NNW,338,0.0,1.0,83,0.00,,,0.00,Wunderground v.1.15,2013-03-03 08:46:00,
2013-03-03 03:49:00,51.9,46.9,29.96,NNW,338,0.0,1.0,83,0.00,,,0.00,Wunderground v.1.15,2013-03-03 08:49:00,
2013-03-03 03:50:00,51.8,46.8,29.95,NNW,338,0.0,0.0,83,0.00,,,0.00,Wunderground v.1.15,2013-03-03 08:50:00,
2013-03-03 03:51:00,51.8,47.1,29.95,NNW,338,0.0,0.0,84,0.00,,,0.00,Wunderground v.1.15,2013-03-03 08:51:00,
2013-03-03 03:53:00,51.7,47.0,29.96,NNW,338,1.0,1.0,84,0.00,,,0.00,Wunderground v.1.15,2013-03-03 08:53:00,
2013-03-03 03:54:00,51.6,46.9,29.96,NNW,338,0.0,1.0,84,0.00,,,0.00,Wunderground v.1.15,2013-03-03 08:54:00,
2013-03-03 03:55:00,51.6,46.9,29.96,NNW,338,0.0,1.0,84,0.00,,,0.00,Wunderground v.1.15,2013-03-03 08:55:00,
2013-03-03 03:57:00,51.5,46.8,29.95,NNW,338,0.0,1.0,84,0.00,,,0.00,Wunderground v.1.15,2013-03-03 08:57:00,
2013-03-03 03:58:00,51.4,46.7,29.95,NNW,338,0.0,1.0,84,0.00,,,0.00,Wunderground v.1.15,2013-03-03 08:58:00,
2013-03-03 04:00:00,51.3,46.9,29.95,NNW,338,0.0,0.0,85,0.00,,,0.00,Wunderground v.1.15,2013-03-03 09:00:00,
2013-03-03 04:01:00,51.3,46.9,29.95,NNW,338,0.0,0.0,85,0.00,,,0.00,Wunderground v.1.15,2013-03-03 09:01:00,
2013-03-03 04:02:00,51.2,46.8,29.95,NNW,338,0.0,0.0,85,0.00,,,0.00,Wunderground v.1.15,2013-03-03 09:02:00,
2013-03-03 04:04:00,51.1,46.7,29.95,NNW,338,0.0,0.0,85,0.00,,,0.00,Wunderground v.1.15,2013-03-03 09:04:00,
2013-03-03 04:06:00,51.0,46.6,29.94,NNW,338,0.0,0.0,85,0.00,,,0.00,Wunderground v.1.15,2013-03-03 09:06:00,
2013-03-03 04:08:00,50.9,46.6,29.94,NNW,338,0.0,0.0,85,0.00,,,0.00,Wunderground v.1.15,2013-03-03 09:08:00,
2013-03-03 04:09:00,50.8,46.8,29.94,NNW,338,0.0,0.0,86,0.00,,,0.00,Wunderground v.1.15,2013-03-03 09:09:00,
2013-03-03 04:11:00,50.7,46.7,29.94,NNW,338,0.0,0.0,86,0.00,,,0.00,Wunderground v.1.15,2013-03-03 09:11:00,
2013-03-03 04:13:00,50.7,46.7,29.94,NNW,338,0.0,0.0,86,0.00,,,0.00,Wunderground v.1.15,2013-03-03 09:13:00,
2013-03-03 04:14:00,50.6,46.6,29.94,NNW,338,0.0,0.0,86,0.00,,,0.00,Wunderground v.1.15,2013-03-03 09:14:00,
2013-03-03 04:16:00,50.6,46.6,29.94,NNW,338,0.0,0.0,86,0.00,,,0.00,Wunderground v.1.15,2013-03-03 09:16:00,
2013-03-03 04:17:00,50.6,46.6,29.94,NNW,338,0.0,0.0,86,0.00,,,0.00,Wunderground v.1.15,2013-03-03 09:17:00,
2013-03-03 04:19:00,50.6,46.6,29.94,NNW,338,0.0,0.0,86,0.00,,,0.00,Wunderground v.1.15,2013-03-03 09:19:00,
2013-03-03 04:22:00,50.5,46.8,29.94,NNW,338,0.0,0.0,87,0.00,,,0.00,Wunderground v.1.15,2013-03-03 09:22:00,
2013-03-03 04:25:00,50.4,46.7,29.94,NNW,338,0.0,0.0,87,0.00,,,0.00,Wunderground v.1.15,2013-03-03 09:25:00,
2013-03-03 04:27:00,50.4,46.7,29.94,NNW,338,0.0,0.0,87,0.00,,,0.00,Wunderground v.1.15,2013-03-03 09:27:00,
2013-03-03 04:30:00,50.4,46.7,29.94,NNW,338,0.0,0.0,87,0.00,,,0.00,Wunderground v.1.15,2013-03-03 09:30:00,
2013-03-03 04:32:00,50.4,46.7,29.94,NNW,338,0.0,0.0,87,0.00,,,0.00,Wunderground v.1.15,2013-03-03 09:32:00,
2013-03-03 04:35:00,50.5,46.8,29.94,NNW,338,0.0,0.0,87,0.00,,,0.00,Wunderground v.1.15,2013-03-03 09:35:00,
2013-03-03 04:36:00,50.5,46.8,29.94,NNW,338,0.0,0.0,87,0.00,,,0.00,Wunderground v.1.15,2013-03-03 09:36:00,
2013-03-03 04:37:00,50.5,46.8,29.94,NNW,338,0.0,0.0,87,0.00,,,0.00,Wunderground v.1.15,2013-03-03 09:37:00,
2013-03-03 04:38:00,50.5,46.8,29.94,NNW,338,0.0,0.0,87,0.00,,,0.00,Wunderground v.1.15,2013-03-03 09:38:00,
2013-03-03 04:40:00,50.5,46.8,29.94,NNW,338,0.0,0.0,87,0.00,,,0.00,Wunderground v.1.15,2013-03-03 09:40:00,
2013-03-03 04:41:00,50.5,46.8,29.94,NNW,338,0.0,0.0,87,0.00,,,0.00,Wunderground v.1.15,2013-03-03 09:41:00,
2013-03-03 04:43:00,50.5,46.8,29.94,NNW,338,0.0,0.0,87,0.00,,,0.00,Wunderground v.1.15,2013-03-03 09:43:00,
2013-03-03 04:45:00,50.5,46.8,29.94,NNW,338,0.0,0.0,87,0.00,,,0.00,Wunderground v.1.15,2013-03-03 09:45:00,
2013-03-03 04:46:00,50.5,46.8,29.94,NNW,338,0.0,0.0,87,0.00,,,0.00,Wunderground v.1.15,2013-03-03 09:46:00,
2013-03-03 04:48:00,50.6,46.9,29.95,NNW,338,0.0,0.0,87,0.00,,,0.00,Wunderground v.1.15,2013-03-03 09:48:00,
2013-03-03 04:51:00,50.7,47.3,29.95,NNW,338,0.0,0.0,88,0.00,,,0.00,Wunderground v.1.15,2013-03-03 09:51:00,
2013-03-03 04:54:00,50.8,47.4,29.95,NNW,338,0.0,0.0,88,0.00,,,0.00,Wunderground v.1.15,2013-03-03 09:54:00,
2013-03-03 04:56:00,50.8,47.4,29.95,NNW,338,0.0,0.0,88,0.00,,,0.00,Wunderground v.1.15,2013-03-03 09:56:00,
2013-03-03 04:59:00,50.8,47.4,29.95,NNW,338,0.0,0.0,88,0.00,,,0.00,Wunderground v.1.15,2013-03-03 09:59:00,
2013-03-03 05:00:00,50.8,47.4,29.95,NNW,338,0.0,0.0,88,0.00,,,0.00,Wunderground v.1.15,2013-03-03 10:00:00,
2013-03-03 05:01:00,50.8,47.4,29.95,NNW,338,0.0,0.0,88,0.00,,,0.00,Wunderground v.1.15,2013-03-03 10:01:00,
2013-03-03 05:02:00,50.8,47.4,29.95,NNW,338,0.0,0.0,88,0.00,,,0.00,Wunderground v.1.15,2013-03-03 10:02:00,
2013-03-03 05:04:00,50.8,47.7,29.95,NNW,338,0.0,0.0,89,0.00,,,0.00,Wunderground v.1.15,2013-03-03 10:04:00,
2013-03-03 05:06:00,50.8,47.7,29.95,NNW,338,0.0,0.0,89,0.00,,,0.00,Wunderground v.1.15,2013-03-03 10:06:00,
2013-03-03 05:07:00,50.8,47.7,29.95,NNW,338,0.0,0.0,89,0.00,,,0.00,Wunderground v.1.15,2013-03-03 10:07:00,
2013-03-03 05:08:00,50.8,47.7,29.95,NNW,338,0.0,0.0,89,0.00,,,0.00,Wunderground v.1.15,2013-03-03 10:08:00,
2013-03-03 05:09:00,50.8,47.7,29.95,NNW,338,0.0,0.0,89,0.00,,,0.00,Wunderground v.1.15,2013-03-03 10:09:00,
2013-03-03 05:11:00,50.7,47.6,29.95,NNW,338,0.0,0.0,89,0.00,,,0.00,Wunderground v.1.15,2013-03-03 10:11:00,
2013-03-03 05:12:00,50.7,47.6,29.95,NNW,338,0.0,0.0,89,0.00,,,0.00,Wunderground v.1.15,2013-03-03 10:12:00,
2013-03-03 05:13:00,50.7,47.6,29.95,NNW,338,0.0,0.0,89,0.00,,,0.00,Wunderground v.1.15,2013-03-03 10:13:00,
2013-03-03 05:14:00,50.7,47.6,29.95,NNW,338,0.0,0.0,89,0.00,,,0.00,Wunderground v.1.15,2013-03-03 10:14:00,
2013-03-03 05:17:00,50.7,47.6,29.95,NNW,338,0.0,0.0,89,0.00,,,0.00,Wunderground v.1.15,2013-03-03 10:17:00,
2013-03-03 05:18:00,50.8,47.7,29.96,NNW,338,0.0,0.0,89,0.00,,,0.00,Wunderground v.1.15,2013-03-03 10:18:00,
2013-03-03 05:20:00,50.8,47.7,29.96,NNW,338,0.0,0.0,89,0.00,,,0.00,Wunderground v.1.15,2013-03-03 10:20:00,
2013-03-03 05:22:00,50.8,47.7,29.96,NNW,338,0.0,1.0,89,0.00,,,0.00,Wunderground v.1.15,2013-03-03 10:22:00,
2013-03-03 05:23:00,50.7,47.6,29.96,NNW,338,0.0,1.0,89,0.00,,,0.00,Wunderground v.1.15,2013-03-03 10:23:00,
2013-03-03 05:25:00,50.8,47.7,29.96,NNW,338,0.0,1.0,89,0.00,,,0.00,Wunderground v.1.15,2013-03-03 10:25:00,
2013-03-03 05:27:00,50.7,47.6,29.96,NNW,338,0.0,1.0,89,0.00,,,0.00,Wunderground v.1.15,2013-03-03 10:27:00,
2013-03-03 05:28:00,50.7,47.6,29.96,NNW,338,0.0,1.0,89,0.00,,,0.00,Wunderground v.1.15,2013-03-03 10:28:00,
2013-03-03 05:31:00,50.6,47.5,29.96,NNW,338,0.0,0.0,89,0.00,,,0.00,Wunderground v.1.15,2013-03-03 10:31:00,
2013-03-03 05:32:00,50.6,47.5,29.96,NNW,338,0.0,0.0,89,0.00,,,0.00,Wunderground v.1.15,2013-03-03 10:32:00,
2013-03-03 05:33:00,50.5,47.4,29.96,NNW,338,0.0,0.0,89,0.00,,,0.00,Wunderground v.1.15,2013-03-03 10:33:00,
2013-03-03 05:34:00,50.5,47.4,29.96,NNW,338,0.0,0.0,89,0.00,,,0.00,Wunderground v.1.15,2013-03-03 10:34:00,
2013-03-03 05:38:00,50.4,47.3,29.97,NNW,338,0.0,0.0,89,0.00,,,0.00,Wunderground v.1.15,2013-03-03 10:38:00,
2013-03-03 05:39:00,50.3,46.9,29.97,NNW,328,0.0,0.0,88,0.00,,,0.00,Wunderground v.1.15,2013-03-03 10:39:00,
2013-03-03 05:43:00,50.3,46.9,29.96,NNW,328,0.0,0.0,88,0.00,,,0.01,Wunderground v.1.15,2013-03-03 10:43:00,
2013-03-03 05:44:00,50.3,46.9,29.96,NNW,328,0.0,0.0,88,0.00,,,0.01,Wunderground v.1.15,2013-03-03 10:44:00,
2013-03-03 05:48:00,50.3,46.9,29.96,NNW,328,0.0,1.0,88,0.00,,,0.01,Wunderground v.1.15,2013-03-03 10:48:00,
2013-03-03 05:49:00,50.3,46.9,29.96,NNW,328,0.0,0.0,88,0.00,,,0.01,Wunderground v.1.15,2013-03-03 10:49:00,
2013-03-03 05:50:00,50.3,46.9,29.96,NNW,328,0.0,0.0,88,0.00,,,0.01,Wunderground v.1.15,2013-03-03 10:50:00,
2013-03-03 05:53:00,50.2,46.5,29.97,NNW,327,0.0,1.0,87,0.00,,,0.01,Wunderground v.1.15,2013-03-03 10:53:00,
2013-03-03 05:54:00,50.2,46.5,29.97,NNW,327,0.0,1.0,87,0.00,,,0.01,Wunderground v.1.15,2013-03-03 10:54:00,
2013-03-03 05:55:00,50.2,46.5,29.97,NNW,327,0.0,1.0,87,0.00,,,0.01,Wunderground v.1.15,2013-03-03 10:55:00,
2013-03-03 05:56:00,50.2,46.5,29.97,NNW,327,1.0,1.0,87,0.00,,,0.01,Wunderground v.1.15,2013-03-03 10:56:00,
2013-03-03 05:58:00,50.3,46.6,29.97,NNW,327,0.0,1.0,87,0.00,,,0.01,Wunderground v.1.15,2013-03-03 10:58:00,
2013-03-03 05:59:00,50.3,46.6,29.97,NNW,327,0.0,0.0,87,0.00,,,0.01,Wunderground v.1.15,2013-03-03 10:59:00,
2013-03-03 06:00:00,50.3,46.6,29.97,NNW,327,0.0,0.0,87,0.00,,,0.01,Wunderground v.1.15,2013-03-03 11:00:00,
2013-03-03 06:01:00,50.3,46.6,29.97,NNW,327,0.0,0.0,87,0.00,,,0.01,Wunderground v.1.15,2013-03-03 11:01:00,
2013-03-03 06:04:00,50.3,46.6,29.97,NNW,327,0.0,2.0,87,0.00,,,0.01,Wunderground v.1.15,2013-03-03 11:04:00,
2013-03-03 06:06:00,50.3,46.6,29.96,NNW,327,0.0,2.0,87,0.00,,,0.01,Wunderground v.1.15,2013-03-03 11:06:00,
2013-03-03 06:07:00,50.3,46.6,29.96,NW,310,2.0,2.0,87,0.00,,,0.01,Wunderground v.1.15,2013-03-03 11:07:00,
2013-03-03 06:09:00,50.3,46.6,29.96,NW,315,0.0,2.0,87,0.00,,,0.01,Wunderground v.1.15,2013-03-03 11:09:00,
2013-03-03 06:10:00,50.3,46.6,29.96,NW,315,0.0,0.0,87,0.00,,,0.01,Wunderground v.1.15,2013-03-03 11:10:00,
2013-03-03 06:11:00,50.3,46.6,29.96,NW,315,0.0,0.0,87,0.00,,,0.01,Wunderground v.1.15,2013-03-03 11:11:00,
2013-03-03 06:13:00,50.4,46.7,29.96,NW,319,0.0,1.0,87,0.00,,,0.01,Wunderground v.1.15,2013-03-03 11:13:00,
2013-03-03 06:14:00,50.4,46.7,29.97,NW,319,0.0,1.0,87,0.00,,,0.01,Wunderground v.1.15,2013-03-03 11:14:00,
2013-03-03 06:15:00,50.4,46.7,29.97,NW,319,0.0,1.0,87,0.00,,,0.01,Wunderground v.1.15,2013-03-03 11:15:00,
2013-03-03 06:18:00,50.4,46.7,29.97,NW,317,0.0,1.0,87,0.00,,,0.01,Wunderground v.1.15,2013-03-03 11:18:00,
2013-03-03 06:20:00,50.4,46.7,29.97,NW,325,0.0,4.0,87,0.00,,,0.01,Wunderground v.1.15,2013-03-03 11:20:00,
2013-03-03 06:21:00,50.4,46.7,29.97,NW,325,0.0,4.0,87,0.00,,,0.01,Wunderground v.1.15,2013-03-03 11:21:00,
2013-03-03 06:23:00,50.3,46.6,29.97,NW,323,0.0,4.0,87,0.00,,,0.01,Wunderground v.1.15,2013-03-03 11:23:00,
2013-03-03 06:24:00,50.3,46.3,29.97,NNW,333,3.0,4.0,86,0.00,,,0.01,Wunderground v.1.15,2013-03-03 11:24:00,
2013-03-03 06:25:00,50.2,46.2,29.97,NW,312,0.0,5.0,86,0.00,,,0.01,Wunderground v.1.15,2013-03-03 11:25:00,
2013-03-03 06:26:00,50.2,46.2,29.97,NW,317,2.0,5.0,86,0.00,,,0.01,Wunderground v.1.15,2013-03-03 11:26:00,
2013-03-03 06:28:00,50.2,46.2,29.97,NW,316,0.0,5.0,86,0.00,,,0.01,Wunderground v.1.15,2013-03-03 11:28:00,
2013-03-03 06:29:00,50.2,46.2,29.97,NW,316,0.0,5.0,86,0.00,,,0.01,Wunderground v.1.15,2013-03-03 11:29:00,
2013-03-03 06:31:00,50.1,46.1,29.97,NNW,327,0.0,3.0,86,0.00,,,0.01,Wunderground v.1.15,2013-03-03 11:31:00,
2013-03-03 06:32:00,50.2,46.2,29.98,NNW,327,0.0,3.0,86,0.00,,,0.01,Wunderground v.1.15,2013-03-03 11:32:00,
2013-03-03 06:33:00,50.2,46.2,29.98,NNW,327,0.0,3.0,86,0.00,,,0.01,Wunderground v.1.15,2013-03-03 11:33:00,
2013-03-03 06:34:00,50.1,46.1,29.98,NNW,327,0.0,3.0,86,0.00,,,0.01,Wunderground v.1.15,2013-03-03 11:34:00,
2013-03-03 06:36:00,50.2,46.2,29.98,NNW,327,0.0,3.0,86,0.00,,,0.01,Wunderground v.1.15,2013-03-03 11:36:00,
2013-03-03 06:38:00,50.2,46.2,29.98,NNW,327,0.0,3.0,86,0.00,,,0.01,Wunderground v.1.15,2013-03-03 11:38:00,
2013-03-03 06:39:00,50.2,46.2,29.98,NNW,327,0.0,3.0,86,0.00,,,0.01,Wunderground v.1.15,2013-03-03 11:39:00,
2013-03-03 06:41:00,50.2,46.2,29.98,NNW,327,0.0,0.0,86,0.00,,,0.01,Wunderground v.1.15,2013-03-03 11:41:00,
2013-03-03 06:43:00,50.1,46.1,29.98,NNW,327,0.0,0.0,86,0.00,,,0.01,Wunderground v.1.15,2013-03-03 11:43:00,
2013-03-03 06:44:00,50.2,46.2,29.97,NNW,327,0.0,0.0,86,0.00,,,0.01,Wunderground v.1.15,2013-03-03 11:44:00,
2013-03-03 06:46:00,50.1,46.4,29.97,NNW,327,0.0,0.0,87,0.00,,,0.01,Wunderground v.1.15,2013-03-03 11:46:00,
2013-03-03 06:48:00,50.1,46.4,29.97,NNW,327,0.0,0.0,87,0.00,,,0.01,Wunderground v.1.15,2013-03-03 11:48:00,
2013-03-03 06:49:00,50.1,46.4,29.97,NNW,327,0.0,0.0,87,0.00,,,0.01,Wunderground v.1.15,2013-03-03 11:49:00,
2013-03-03 06:50:00,50.1,46.4,29.97,NNW,327,0.0,0.0,87,0.00,,,0.01,Wunderground v.1.15,2013-03-03 11:50:00,
2013-03-03 06:52:00,50.0,46.3,29.97,NNW,327,0.0,0.0,87,0.00,,,0.01,Wunderground v.1.15,2013-03-03 11:52:00,
2013-03-03 06:53:00,49.9,46.2,29.97,NNW,327,0.0,0.0,87,0.00,,,0.01,Wunderground v.1.15,2013-03-03 11:53:00,
2013-03-03 06:55:00,49.9,46.2,29.97,NNW,327,0.0,0.0,87,0.00,,,0.01,Wunderground v.1.15,2013-03-03 11:55:00,
2013-03-03 06:56:00,49.9,46.2,29.97,NNW,327,0.0,0.0,87,0.00,,,0.01,Wunderground v.1.15,2013-03-03 11:56:00,
2013-03-03 06:58:00,49.9,46.2,29.96,NNW,327,0.0,0.0,87,0.00,,,0.01,Wunderground v.1.15,2013-03-03 11:58:00,
2013-03-03 06:59:00,49.9,46.2,29.96,NNW,327,0.0,0.0,87,0.00,,,0.01,Wunderground v.1.15,2013-03-03 11:59:00,
2013-03-03 07:00:00,49.8,46.1,29.96,NNW,327,0.0,0.0,87,0.00,,,0.01,Wunderground v.1.15,2013-03-03 12:00:00,
2013-03-03 07:01:00,49.8,46.1,29.96,NNW,327,0.0,0.0,87,0.00,,,0.01,Wunderground v.1.15,2013-03-03 12:01:00,
2013-03-03 07:03:00,49.7,46.0,29.96,NNW,327,0.0,0.0,87,0.00,,,0.01,Wunderground v.1.15,2013-03-03 12:03:00,
2013-03-03 07:04:00,49.7,46.0,29.96,NNW,327,0.0,0.0,87,0.00,,,0.01,Wunderground v.1.15,2013-03-03 12:04:00,
2013-03-03 07:05:00,49.7,46.0,29.96,NNW,327,0.0,0.0,87,0.00,,,0.01,Wunderground v.1.15,2013-03-03 12:05:00,
2013-03-03 07:07:00,49.6,45.9,29.96,NNW,327,0.0,0.0,87,0.00,,,0.01,Wunderground v.1.15,2013-03-03 12:07:00,
2013-03-03 07:09:00,49.6,46.2,29.96,NNW,327,0.0,0.0,88,0.00,,,0.01,Wunderground v.1.15,2013-03-03 12:09:00,
2013-03-03 07:12:00,49.6,46.2,29.96,NNW,327,0.0,0.0,88,0.00,,,0.01,Wunderground v.1.15,2013-03-03 12:12:00,
2013-03-03 07:14:00,49.6,46.2,29.97,NNW,327,0.0,0.0,88,0.00,,,0.01,Wunderground v.1.15,2013-03-03 12:14:00,
2013-03-03 07:15:00,49.6,46.2,29.97,NNW,327,0.0,0.0,88,0.00,,,0.01,Wunderground v.1.15,2013-03-03 12:15:00,
2013-03-03 07:17:00,49.7,46.6,29.97,NNW,327,0.0,0.0,89,0.00,,,0.01,Wunderground v.1.15,2013-03-03 12:17:00,
2013-03-03 07:19:00,49.7,46.3,29.96,NNW,327,0.0,0.0,88,0.00,,,0.01,Wunderground v.1.15,2013-03-03 12:19:00,
2013-03-03 07:20:00,49.7,46.3,29.96,NNW,327,0.0,0.0,88,0.00,,,0.01,Wunderground v.1.15,2013-03-03 12:20:00,
2013-03-03 07:22:00,49.9,46.8,29.96,NNW,327,0.0,0.0,89,0.00,,,0.01,Wunderground v.1.15,2013-03-03 12:22:00,
2013-03-03 07:25:00,50.1,46.7,29.97,NNW,327,0.0,0.0,88,0.00,,,0.01,Wunderground v.1.15,2013-03-03 12:25:00,
2013-03-03 07:27:00,50.4,47.0,29.97,NNW,327,0.0,0.0,88,0.00,,,0.01,Wunderground v.1.15,2013-03-03 12:27:00,
2013-03-03 07:28:00,50.6,47.5,29.97,NNW,327,0.0,0.0,89,0.00,,,0.01,Wunderground v.1.15,2013-03-03 12:28:00,
2013-03-03 07:30:00,51.2,48.1,29.97,NNW,327,0.0,0.0,89,0.00,,,0.01,Wunderground v.1.15,2013-03-03 12:30:00,
2013-03-03 07:31:00,51.5,48.4,29.97,NNW,327,0.0,0.0,89,0.00,,,0.01,Wunderground v.1.15,2013-03-03 12:31:00,
2013-03-03 07:32:00,52.2,48.8,29.97,NNW,327,0.0,0.0,88,0.00,,,0.01,Wunderground v.1.15,2013-03-03 12:32:00,
2013-03-03 07:34:00,52.8,49.0,29.97,NNW,327,0.0,0.0,87,0.00,,,0.01,Wunderground v.1.15,2013-03-03 12:34:00,
2013-03-03 07:35:00,52.9,48.8,29.97,NNW,327,0.0,0.0,86,0.00,,,0.01,Wunderground v.1.15,2013-03-03 12:35:00,
2013-03-03 07:36:00,53.2,49.1,29.98,NNW,327,0.0,0.0,86,0.00,,,0.01,Wunderground v.1.15,2013-03-03 12:36:00,
2013-03-03 07:38:00,53.4,49.0,29.98,NW,326,0.0,0.0,85,0.00,,,0.01,Wunderground v.1.15,2013-03-03 12:38:00,
2013-03-03 07:40:00,53.4,48.0,29.98,NW,325,0.0,1.0,82,0.00,,,0.01,Wunderground v.1.15,2013-03-03 12:40:00,
2013-03-03 07:41:00,53.6,48.6,29.98,NW,324,0.0,1.0,83,0.00,,,0.01,Wunderground v.1.15,2013-03-03 12:41:00,
2013-03-03 07:43:00,54.1,49.1,29.98,NW,324,0.0,1.0,83,0.00,,,0.01,Wunderground v.1.15,2013-03-03 12:43:00,
2013-03-03 07:45:00,54.4,49.0,29.98,NW,324,0.0,1.0,82,0.00,,,0.01,Wunderground v.1.15,2013-03-03 12:45:00,
2013-03-03 07:46:00,54.6,49.2,29.98,NW,324,0.0,1.0,82,0.00,,,0.01,Wunderground v.1.15,2013-03-03 12:46:00,
2013-03-03 07:47:00,54.7,49.0,29.98,NW,324,0.0,1.0,81,0.00,,,0.01,Wunderground v.1.15,2013-03-03 12:47:00,
2013-03-03 07:49:00,55.2,49.5,29.98,NW,325,0.0,4.0,81,0.00,,,0.01,Wunderground v.1.15,2013-03-03 12:49:00,
2013-03-03 07:50:00,55.3,49.6,29.98,NW,325,0.0,4.0,81,0.00,,,0.01,Wunderground v.1.15,2013-03-03 12:50:00,
2013-03-03 07:52:00,55.5,49.1,29.98,NW,325,0.0,4.0,79,0.00,,,0.01,Wunderground v.1.15,2013-03-03 12:52:00,
2013-03-03 07:54:00,55.5,48.8,29.98,NW,325,0.0,4.0,78,0.00,,,0.01,Wunderground v.1.15,2013-03-03 12:54:00,
2013-03-03 07:55:00,55.5,48.8,29.98,NW,325,0.0,4.0,78,0.00,,,0.01,Wunderground v.1.15,2013-03-03 12:55:00,
2013-03-03 07:57:00,55.1,48.0,29.98,NW,318,0.0,4.0,77,0.00,,,0.01,Wunderground v.1.15,2013-03-03 12:57:00,
2013-03-03 07:58:00,55.1,48.4,29.98,NW,319,0.0,4.0,78,0.00,,,0.01,Wunderground v.1.15,2013-03-03 12:58:00,
2013-03-03 08:00:00,55.3,48.9,29.98,NW,318,0.0,0.0,79,0.00,,,0.01,Wunderground v.1.15,2013-03-03 13:00:00,
2013-03-03 08:01:00,55.5,49.1,29.98,NW,317,1.0,1.0,79,0.00,,,0.01,Wunderground v.1.15,2013-03-03 13:01:00,
2013-03-03 08:02:00,55.8,49.0,29.99,NW,317,0.0,1.0,78,0.00,,,0.01,Wunderground v.1.15,2013-03-03 13:02:00,
2013-03-03 08:03:00,56.0,49.2,29.98,NW,317,0.0,1.0,78,0.00,,,0.01,Wunderground v.1.15,2013-03-03 13:03:00,
2013-03-03 08:05:00,56.3,49.5,29.98,NW,318,0.0,5.0,78,0.00,,,0.01,Wunderground v.1.15,2013-03-03 13:05:00,
2013-03-03 08:06:00,56.4,49.3,29.98,NW,322,0.0,5.0,77,0.00,,,0.01,Wunderground v.1.15,2013-03-03 13:06:00,
2013-03-03 08:08:00,56.7,49.6,29.99,NW,321,0.0,5.0,77,0.00,,,0.01,Wunderground v.1.15,2013-03-03 13:08:00,
2013-03-03 08:09:00,56.8,49.7,29.98,NW,323,0.0,5.0,77,0.00,,,0.01,Wunderground v.1.15,2013-03-03 13:09:00,
2013-03-03 08:10:00,56.9,49.1,29.99,NW,311,0.0,4.0,75,0.00,,,0.01,Wunderground v.1.15,2013-03-03 13:10:00,
2013-03-03 08:11:00,56.9,48.7,29.98,NW,313,0.0,4.0,74,0.00,,,0.01,Wunderground v.1.15,2013-03-03 13:11:00,
2013-03-03 08:14:00,56.6,48.0,29.98,WNW,296,6.0,6.0,73,0.00,,,0.01,Wunderground v.1.15,2013-03-03 13:14:00,
2013-03-03 08:15:00,56.6,48.0,29.98,NW,304,1.0,6.0,73,0.00,,,0.01,Wunderground v.1.15,2013-03-03 13:15:00,
2013-03-03 08:16:00,56.6,47.7,29.98,NW,304,5.0,6.0,72,0.00,,,0.01,Wunderground v.1.15,2013-03-03 13:16:00,
2013-03-03 08:19:00,56.7,48.1,29.99,NW,318,0.0,6.0,73,0.00,,,0.01,Wunderground v.1.15,2013-03-03 13:19:00,
2013-03-03 08:21:00,56.8,47.9,29.99,NW,319,0.0,2.0,72,0.00,,,0.01,Wunderground v.1.15,2013-03-03 13:21:00,
2013-03-03 08:22:00,56.8,47.9,29.98,NW,316,1.0,5.0,72,0.00,,,0.01,Wunderground v.1.15,2013-03-03 13:22:00,
2013-03-03 08:24:00,56.8,48.2,29.99,WNW,292,1.0,5.0,73,0.00,,,0.01,Wunderground v.1.15,2013-03-03 13:24:00,
2013-03-03 08:25:00,56.9,48.3,29.99,NW,317,1.0,5.0,73,0.00,,,0.01,Wunderground v.1.15,2013-03-03 13:25:00,
2013-03-03 08:26:00,56.9,48.0,29.99,NW,324,1.0,7.0,72,0.00,,,0.01,Wunderground v.1.15,2013-03-03 13:26:00,
2013-03-03 08:27:00,57.0,47.7,29.99,NNW,327,1.0,7.0,71,0.00,,,0.01,Wunderground v.1.15,2013-03-03 13:27:00,
2013-03-03 08:30:00,56.9,47.2,29.99,WNW,283,0.0,1.0,70,0.00,,,0.01,Wunderground v.1.15,2013-03-03 13:30:00,
2013-03-03 08:31:00,56.9,47.6,29.99,North,355,0.0,5.0,71,0.00,,,0.01,Wunderground v.1.15,2013-03-03 13:31:00,
2013-03-03 08:33:00,57.1,47.4,29.99,NW,320,0.0,5.0,70,0.00,,,0.01,Wunderground v.1.15,2013-03-03 13:33:00,
2013-03-03 08:35:00,57.3,48.3,29.99,NW,322,0.0,5.0,72,0.00,,,0.01,Wunderground v.1.15,2013-03-03 13:35:00,
2013-03-03 08:36:00,57.5,47.8,29.99,NW,321,0.0,5.0,70,0.00,,,0.01,Wunderground v.1.15,2013-03-03 13:36:00,
2013-03-03 08:39:00,57.4,46.9,29.99,WNW,291,0.0,8.0,68,0.00,,,0.01,Wunderground v.1.15,2013-03-03 13:39:00,
2013-03-03 08:40:00,57.3,47.2,29.99,NNW,337,4.0,4.0,69,0.00,,,0.01,Wunderground v.1.15,2013-03-03 13:40:00,
2013-03-03 08:41:00,56.9,47.2,29.99,NW,322,0.0,4.0,70,0.00,,,0.01,Wunderground v.1.15,2013-03-03 13:41:00,
2013-03-03 08:44:00,57.1,48.2,29.99,NNW,334,0.0,4.0,72,0.00,,,0.01,Wunderground v.1.15,2013-03-03 13:44:00,
2013-03-03 08:45:00,57.4,48.4,29.99,NNW,328,2.0,6.0,72,0.00,,,0.01,Wunderground v.1.15,2013-03-03 13:45:00,
2013-03-03 08:46:00,57.6,48.3,29.99,NNW,338,3.0,6.0,71,0.00,,,0.01,Wunderground v.1.15,2013-03-03 13:46:00,
2013-03-03 08:50:00,57.8,47.7,29.99,NNE,25,2.0,5.0,69,0.00,,,0.01,Wunderground v.1.15,2013-03-03 13:50:00,
2013-03-03 08:51:00,57.8,47.7,29.99,NW,310,8.0,8.0,69,0.00,,,0.01,Wunderground v.1.15,2013-03-03 13:51:00,
2013-03-03 08:55:00,58.0,47.9,29.99,NW,322,1.0,10.0,69,0.00,,,0.01,Wunderground v.1.15,2013-03-03 13:55:00,
2013-03-03 08:56:00,57.9,47.4,29.99,WNW,284,1.0,10.0,68,0.00,,,0.01,Wunderground v.1.15,2013-03-03 13:56:00,
2013-03-03 08:57:00,58.0,47.9,29.99,NNW,329,7.0,10.0,69,0.00,,,0.01,Wunderground v.1.15,2013-03-03 13:57:00,
2013-03-03 09:01:00,58.4,48.3,29.99,NW,322,4.0,5.0,69,0.00,,,0.01,Wunderground v.1.15,2013-03-03 14:01:00,
2013-03-03 09:02:00,58.5,48.4,29.99,WNW,296,2.0,7.0,69,0.00,,,0.01,Wunderground v.1.15,2013-03-03 14:02:00,
2013-03-03 09:03:00,58.5,48.0,29.99,NW,316,5.0,7.0,68,0.00,,,0.01,Wunderground v.1.15,2013-03-03 14:03:00,
2013-03-03 09:06:00,58.6,48.5,29.99,NNW,329,6.0,10.0,69,0.00,,,0.01,Wunderground v.1.15,2013-03-03 14:06:00,
2013-03-03 09:07:00,58.6,48.5,29.99,NW,320,3.0,10.0,69,0.00,,,0.01,Wunderground v.1.15,2013-03-03 14:07:00,
2013-03-03 09:08:00,58.5,48.0,29.99,NNW,337,6.0,10.0,68,0.00,,,0.01,Wunderground v.1.15,2013-03-03 14:08:00,
2013-03-03 09:12:00,58.5,48.7,30.00,NW,320,8.0,8.0,70,0.00,,,0.01,Wunderground v.1.15,2013-03-03 14:12:00,
2013-03-03 09:13:00,58.5,48.7,29.99,NNW,327,0.0,8.0,70,0.00,,,0.01,Wunderground v.1.15,2013-03-03 14:13:00,
2013-03-03 09:14:00,58.5,48.4,29.99,NW,319,0.0,8.0,69,0.00,,,0.01,Wunderground v.1.15,2013-03-03 14:14:00,
2013-03-03 09:17:00,58.9,49.1,30.00,North,355,0.0,8.0,70,0.00,,,0.01,Wunderground v.1.15,2013-03-03 14:17:00,
2013-03-03 09:18:00,59.0,49.2,29.99,North,350,6.0,8.0,70,0.00,,,0.01,Wunderground v.1.15,2013-03-03 14:18:00,
2013-03-03 09:19:00,59.1,49.3,29.99,NW,311,0.0,8.0,70,0.00,,,0.01,Wunderground v.1.15,2013-03-03 14:19:00,
2013-03-03 09:22:00,59.2,48.6,29.99,NNW,329,0.0,8.0,68,0.00,,,0.01,Wunderground v.1.15,2013-03-03 14:22:00,
2013-03-03 09:24:00,59.3,49.5,29.99,NNW,329,1.0,9.0,70,0.00,,,0.01,Wunderground v.1.15,2013-03-03 14:24:00,
2013-03-03 09:25:00,59.4,49.6,29.99,NW,321,8.0,15.0,70,0.00,,,0.01,Wunderground v.1.15,2013-03-03 14:25:00,
2013-03-03 09:28:00,58.7,49.7,30.00,NNW,336,7.0,15.0,72,0.00,,,0.01,Wunderground v.1.15,2013-03-03 14:28:00,
2013-03-03 09:29:00,58.5,49.5,30.00,NW,316,8.0,8.0,72,0.00,,,0.01,Wunderground v.1.15,2013-03-03 14:29:00,
2013-03-03 09:30:00,58.4,49.4,30.00,NW,315,4.0,8.0,72,0.00,,,0.01,Wunderground v.1.15,2013-03-03 14:30:00,
2013-03-03 09:33:00,57.6,49.0,30.00,NW,315,6.0,13.0,73,0.00,,,0.01,Wunderground v.1.15,2013-03-03 14:33:00,
2013-03-03 09:35:00,57.5,48.9,30.00,NW,308,6.0,13.0,73,0.00,,,0.01,Wunderground v.1.15,2013-03-03 14:35:00,
2013-03-03 09:36:00,57.5,49.3,30.00,NNW,348,0.0,13.0,74,0.00,,,0.01,Wunderground v.1.15,2013-03-03 14:36:00,
2013-03-03 09:39:00,57.8,49.2,30.01,NNW,340,6.0,13.0,73,0.00,,,0.01,Wunderground v.1.15,2013-03-03 14:39:00,
2013-03-03 09:40:00,57.8,49.2,30.01,North,360,9.0,10.0,73,0.00,,,0.01,Wunderground v.1.15,2013-03-03 14:40:00,
2013-03-03 09:41:00,57.7,48.7,30.01,NW,304,7.0,10.0,72,0.00,,,0.01,Wunderground v.1.15,2013-03-03 14:41:00,
2013-03-03 09:42:00,57.7,49.1,30.01,NNW,327,2.0,10.0,73,0.00,,,0.01,Wunderground v.1.15,2013-03-03 14:42:00,
2013-03-03 09:44:00,57.8,49.6,30.01,NNW,332,3.0,10.0,74,0.00,,,0.01,Wunderground v.1.15,2013-03-03 14:44:00,
2013-03-03 09:45:00,58.0,49.8,30.01,NW,326,10.0,13.0,74,0.00,,,0.01,Wunderground v.1.15,2013-03-03 14:45:00,
2013-03-03 09:47:00,57.6,47.9,30.01,NW,309,0.0,14.0,70,0.00,,,0.01,Wunderground v.1.15,2013-03-03 14:47:00,
2013-03-03 09:48:00,57.4,47.7,30.01,NW,311,4.0,14.0,70,0.00,,,0.01,Wunderground v.1.15,2013-03-03 14:48:00,
2013-03-03 09:50:00,56.9,47.6,30.01,NNW,330,6.0,7.0,71,0.00,,,0.01,Wunderground v.1.15,2013-03-03 14:50:00,
2013-03-03 09:52:00,56.6,47.7,30.01,North,360,9.0,10.0,72,0.00,,,0.01,Wunderground v.1.15,2013-03-03 14:52:00,
2013-03-03 09:53:00,56.6,47.7,30.01,NNW,328,7.0,10.0,72,0.00,,,0.01,Wunderground v.1.15,2013-03-03 14:53:00,
2013-03-03 09:56:00,56.6,48.0,30.01,North,355,5.0,12.0,73,0.00,,,0.01,Wunderground v.1.15,2013-03-03 14:56:00,
2013-03-03 09:57:00,57.1,48.9,30.01,NNW,341,0.0,12.0,74,0.00,,,0.01,Wunderground v.1.15,2013-03-03 14:57:00,
2013-03-03 09:58:00,57.4,49.2,30.01,NW,313,4.0,12.0,74,0.00,,,0.01,Wunderground v.1.15,2013-03-03 14:58:00,
2013-03-03 10:01:00,57.8,48.1,30.01,North,350,4.0,11.0,70,0.00,,,0.01,Wunderground v.1.15,2013-03-03 15:01:00,
2013-03-03 10:02:00,57.6,47.5,30.02,NNW,342,9.0,11.0,69,0.00,,,0.01,Wunderground v.1.15,2013-03-03 15:02:00,
2013-03-03 10:05:00,57.2,47.5,30.02,NW,309,0.0,11.0,70,0.00,,,0.01,Wunderground v.1.15,2013-03-03 15:05:00,
2013-03-03 10:06:00,57.1,47.4,30.02,NW,319,5.0,11.0,70,0.00,,,0.01,Wunderground v.1.15,2013-03-03 15:06:00,
2013-03-03 10:07:00,57.1,47.4,30.02,NW,323,0.0,11.0,70,0.00,,,0.01,Wunderground v.1.15,2013-03-03 15:07:00,
2013-03-03 10:10:00,57.3,47.6,30.02,NW,319,5.0,9.0,70,0.00,,,0.01,Wunderground v.1.15,2013-03-03 15:10:00,
2013-03-03 10:11:00,57.3,47.2,30.02,North,360,5.0,12.0,69,0.00,,,0.01,Wunderground v.1.15,2013-03-03 15:11:00,
2013-03-03 10:12:00,57.1,46.2,30.02,NW,326,5.0,12.0,67,0.00,,,0.01,Wunderground v.1.15,2013-03-03 15:12:00,
2013-03-03 10:16:00,56.9,46.4,30.02,WNW,300,0.0,12.0,68,0.00,,,0.01,Wunderground v.1.15,2013-03-03 15:16:00,
2013-03-03 10:17:00,56.9,46.4,30.02,WNW,302,0.0,12.0,68,0.00,,,0.01,Wunderground v.1.15,2013-03-03 15:17:00,
2013-03-03 10:22:00,57.4,47.3,30.02,North,5,1.0,6.0,69,0.00,,,0.01,Wunderground v.1.15,2013-03-03 15:22:00,
2013-03-03 10:23:00,57.5,46.6,30.02,NW,319,7.0,8.0,67,0.00,,,0.01,Wunderground v.1.15,2013-03-03 15:23:00,
2013-03-03 10:27:00,57.7,47.2,30.02,NNW,345,5.0,8.0,68,0.00,,,0.01,Wunderground v.1.15,2013-03-03 15:27:00,
2013-03-03 10:28:00,57.7,46.8,30.02,North,355,7.0,11.0,67,0.00,,,0.01,Wunderground v.1.15,2013-03-03 15:28:00,
2013-03-03 10:29:00,57.5,47.0,30.02,North,355,6.0,11.0,68,0.00,,,0.01,Wunderground v.1.15,2013-03-03 15:29:00,
2013-03-03 10:30:00,57.5,47.0,30.02,North,350,1.0,4.0,68,0.00,,,0.01,Wunderground v.1.15,2013-03-03 15:30:00,
2013-03-03 10:33:00,57.8,46.9,30.02,North,355,4.0,11.0,67,0.00,,,0.01,Wunderground v.1.15,2013-03-03 15:33:00,
2013-03-03 10:34:00,57.8,46.5,30.02,West,281,6.0,13.0,66,0.00,,,0.01,Wunderground v.1.15,2013-03-03 15:34:00,
2013-03-03 10:35:00,57.9,47.0,30.02,NNW,341,10.0,13.0,67,0.00,,,0.01,Wunderground v.1.15,2013-03-03 15:35:00,
2013-03-03 10:38:00,57.9,47.0,30.02,NW,319,5.0,13.0,67,0.00,,,0.01,Wunderground v.1.15,2013-03-03 15:38:00,
2013-03-03 10:39:00,58.2,47.3,30.02,NNW,329,8.0,8.0,67,0.00,,,0.01,Wunderground v.1.15,2013-03-03 15:39:00,
2013-03-03 10:40:00,58.3,47.4,30.02,NW,326,6.0,9.0,67,0.00,,,0.01,Wunderground v.1.15,2013-03-03 15:40:00,
2013-03-03 10:44:00,59.2,47.8,30.02,NW,324,4.0,9.0,66,0.00,,,0.01,Wunderground v.1.15,2013-03-03 15:44:00,
2013-03-03 10:45:00,59.6,48.2,30.02,North,350,2.0,9.0,66,0.00,,,0.01,Wunderground v.1.15,2013-03-03 15:45:00,
2013-03-03 10:49:00,58.4,45.8,30.03,North,5,2.0,8.0,63,0.00,,,0.01,Wunderground v.1.15,2013-03-03 15:49:00,
2013-03-03 10:50:00,58.2,45.2,30.03,NW,319,5.0,8.0,62,0.00,,,0.01,Wunderground v.1.15,2013-03-03 15:50:00,
2013-03-03 10:54:00,56.6,45.0,30.02,NW,306,0.0,8.0,65,0.00,,,0.01,Wunderground v.1.15,2013-03-03 15:54:00,
2013-03-03 10:55:00,56.4,45.2,30.02,NNW,346,5.0,8.0,66,0.00,,,0.01,Wunderground v.1.15,2013-03-03 15:55:00,
2013-03-03 10:56:00,56.3,44.7,30.02,NW,319,7.0,8.0,65,0.00,,,0.01,Wunderground v.1.15,2013-03-03 15:56:00,
2013-03-03 10:57:00,56.0,44.8,30.02,NW,309,0.0,8.0,66,0.00,,,0.01,Wunderground v.1.15,2013-03-03 15:57:00,
2013-03-03 11:00:00,56.0,45.2,30.02,NW,321,0.0,3.0,67,0.00,,,0.01,Wunderground v.1.15,2013-03-03 16:00:00,
2013-03-03 11:01:00,56.0,45.2,30.02,NNW,331,5.0,10.0,67,0.00,,,0.01,Wunderground v.1.15,2013-03-03 16:01:00,
2013-03-03 11:03:00,55.9,44.3,30.02,NNW,348,9.0,10.0,65,0.00,,,0.01,Wunderground v.1.15,2013-03-03 16:03:00,
2013-03-03 11:05:00,55.5,44.3,30.02,North,360,4.0,10.0,66,0.00,,,0.01,Wunderground v.1.15,2013-03-03 16:05:00,
2013-03-03 11:06:00,55.5,44.3,30.02,North,355,5.0,10.0,66,0.00,,,0.01,Wunderground v.1.15,2013-03-03 16:06:00,
2013-03-03 11:08:00,55.8,45.4,30.02,NW,321,2.0,10.0,68,0.00,,,0.01,Wunderground v.1.15,2013-03-03 16:08:00,
2013-03-03 11:11:00,57.1,46.6,30.02,NNW,341,0.0,10.0,68,0.00,,,0.01,Wunderground v.1.15,2013-03-03 16:11:00,
2013-03-03 11:12:00,57.7,47.2,30.02,NW,309,0.0,10.0,68,0.00,,,0.01,Wunderground v.1.15,2013-03-03 16:12:00,
2013-03-03 11:13:00,57.9,47.0,30.02,WNW,302,1.0,10.0,67,0.00,,,0.01,Wunderground v.1.15,2013-03-03 16:13:00,
2013-03-03 11:16:00,58.6,46.9,30.01,North,355,4.0,10.0,65,0.00,,,0.01,Wunderground v.1.15,2013-03-03 16:16:00,
2013-03-03 11:17:00,58.9,46.7,30.01,NW,325,0.0,10.0,64,0.00,,,0.01,Wunderground v.1.15,2013-03-03 16:17:00,
2013-03-03 11:18:00,59.0,46.8,30.01,WNW,296,1.0,10.0,64,0.00,,,0.01,Wunderground v.1.15,2013-03-03 16:18:00,
2013-03-03 11:23:00,59.3,46.7,30.01,North,355,4.0,8.0,63,0.00,,,0.01,Wunderground v.1.15,2013-03-03 16:23:00,
2013-03-03 11:24:00,59.0,45.6,30.01,NNW,342,1.0,8.0,61,0.00,,,0.01,Wunderground v.1.15,2013-03-03 16:24:00,
2013-03-03 11:29:00,59.5,47.7,30.01,NNW,344,0.0,10.0,65,0.00,,,0.01,Wunderground v.1.15,2013-03-03 16:29:00,
2013-03-03 11:34:00,59.9,47.7,30.00,NNW,338,7.0,9.0,64,0.00,,,0.01,Wunderground v.1.15,2013-03-03 16:34:00,
2013-03-03 11:35:00,60.0,47.8,30.01,NW,317,6.0,9.0,64,0.00,,,0.01,Wunderground v.1.15,2013-03-03 16:35:00,
2013-03-03 11:36:00,60.1,47.5,30.00,WNW,303,5.0,9.0,63,0.00,,,0.01,Wunderground v.1.15,2013-03-03 16:36:00,
2013-03-03 11:39:00,60.1,47.0,30.00,NNW,328,6.0,6.0,62,0.00,,,0.01,Wunderground v.1.15,2013-03-03 16:39:00,
2013-03-03 11:40:00,60.1,47.0,30.00,NW,323,2.0,7.0,62,0.00,,,0.01,Wunderground v.1.15,2013-03-03 16:40:00,
2013-03-03 11:43:00,60.2,47.1,30.00,WNW,298,0.0,7.0,62,0.00,,,0.01,Wunderground v.1.15,2013-03-03 16:43:00,
2013-03-03 11:45:00,60.2,47.1,30.00,North,350,2.0,7.0,62,0.00,,,0.01,Wunderground v.1.15,2013-03-03 16:45:00,
2013-03-03 11:48:00,60.7,48.0,30.00,NW,313,1.0,8.0,63,0.00,,,0.01,Wunderground v.1.15,2013-03-03 16:48:00,
2013-03-03 11:50:00,60.8,47.7,30.00,NW,315,0.0,7.0,62,0.00,,,0.01,Wunderground v.1.15,2013-03-03 16:50:00,
2013-03-03 11:51:00,60.9,47.8,30.00,NW,322,9.0,9.0,62,0.00,,,0.01,Wunderground v.1.15,2013-03-03 16:51:00,
2013-03-03 11:53:00,60.9,46.5,30.00,WNW,298,0.0,9.0,59,0.00,,,0.01,Wunderground v.1.15,2013-03-03 16:53:00,
2013-03-03 11:56:00,61.0,47.9,30.01,NW,324,2.0,9.0,62,0.00,,,0.01,Wunderground v.1.15,2013-03-03 16:56:00,
2013-03-03 11:59:00,61.4,47.8,30.00,NW,318,0.0,9.0,61,0.00,,,0.01,Wunderground v.1.15,2013-03-03 16:59:00,
2013-03-03 12:01:00,61.6,48.4,30.00,WNW,301,4.0,7.0,62,0.00,,,0.01,Wunderground v.1.15,2013-03-03 17:01:00,
2013-03-03 12:04:00,61.7,48.5,30.00,NNW,342,0.0,7.0,62,0.00,,,0.01,Wunderground v.1.15,2013-03-03 17:04:00,
2013-03-03 12:06:00,61.6,47.6,30.00,NNW,340,4.0,8.0,60,0.00,,,0.01,Wunderground v.1.15,2013-03-03 17:06:00,
2013-03-03 12:07:00,61.4,47.8,30.00,North,5,0.0,8.0,61,0.00,,,0.01,Wunderground v.1.15,2013-03-03 17:07:00,
2013-03-03 12:09:00,61.1,47.5,30.00,WNW,287,1.0,8.0,61,0.00,,,0.01,Wunderground v.1.15,2013-03-03 17:09:00,
2013-03-03 12:12:00,61.0,47.9,30.00,NW,307,1.0,10.0,62,0.00,,,0.01,Wunderground v.1.15,2013-03-03 17:12:00,
2013-03-03 12:13:00,61.1,48.0,30.00,NNW,342,0.0,10.0,62,0.00,,,0.01,Wunderground v.1.15,2013-03-03 17:13:00,
2013-03-03 12:14:00,61.3,48.6,30.00,NW,313,0.0,10.0,63,0.00,,,0.01,Wunderground v.1.15,2013-03-03 17:14:00,
2013-03-03 12:17:00,61.3,48.2,30.00,NE,34,2.0,10.0,62,0.00,,,0.01,Wunderground v.1.15,2013-03-03 17:17:00,
2013-03-03 12:19:00,61.5,48.8,30.00,NW,307,6.0,10.0,63,0.00,,,0.01,Wunderground v.1.15,2013-03-03 17:19:00,
2013-03-03 12:20:00,61.6,48.0,30.00,North,5,8.0,12.0,61,0.00,,,0.01,Wunderground v.1.15,2013-03-03 17:20:00,
2013-03-03 12:22:00,61.6,48.0,30.00,NNW,334,7.0,12.0,61,0.00,,,0.01,Wunderground v.1.15,2013-03-03 17:22:00,
2013-03-03 12:24:00,61.5,47.5,30.00,NNW,340,4.0,12.0,60,0.00,,,0.01,Wunderground v.1.15,2013-03-03 17:24:00,
2013-03-03 12:25:00,61.6,47.6,30.00,NW,321,0.0,12.0,60,0.00,,,0.01,Wunderground v.1.15,2013-03-03 17:25:00,
2013-03-03 12:26:00,61.9,48.3,29.99,NW,317,9.0,12.0,61,0.00,,,0.01,Wunderground v.1.15,2013-03-03 17:26:00,
2013-03-03 12:28:00,61.9,47.9,29.99,NNW,344,3.0,12.0,60,0.00,,,0.01,Wunderground v.1.15,2013-03-03 17:28:00,
2013-03-03 12:29:00,62.0,48.0,29.99,NNW,335,1.0,5.0,60,0.00,,,0.01,Wunderground v.1.15,2013-03-03 17:29:00,
2013-03-03 12:30:00,62.2,48.1,29.99,NW,326,3.0,5.0,60,0.00,,,0.01,Wunderground v.1.15,2013-03-03 17:30:00,
2013-03-03 12:31:00,62.3,48.7,29.99,WNW,296,5.0,5.0,61,0.00,,,0.01,Wunderground v.1.15,2013-03-03 17:31:00,
2013-03-03 12:34:00,62.4,48.8,29.99,NNW,333,6.0,9.0,61,0.00,,,0.01,Wunderground v.1.15,2013-03-03 17:34:00,
2013-03-03 12:36:00,62.6,49.0,29.99,NW,309,1.0,9.0,61,0.00,,,0.01,Wunderground v.1.15,2013-03-03 17:36:00,
2013-03-03 12:37:00,62.7,48.2,29.99,NW,306,1.0,9.0,59,0.00,,,0.01,Wunderground v.1.15,2013-03-03 17:37:00,
2013-03-03 12:40:00,63.3,49.2,29.99,WNW,302,6.0,7.0,60,0.00,,,0.01,Wunderground v.1.15,2013-03-03 17:40:00,
2013-03-03 12:41:00,63.4,48.8,29.99,NW,325,0.0,8.0,59,0.00,,,0.01,Wunderground v.1.15,2013-03-03 17:41:00,
2013-03-03 12:42:00,63.2,47.7,29.99,NW,325,1.0,8.0,57,0.00,,,0.01,Wunderground v.1.15,2013-03-03 17:42:00,
2013-03-03 12:45:00,62.6,48.5,29.98,NNW,348,4.0,12.0,60,0.00,,,0.01,Wunderground v.1.15,2013-03-03 17:45:00,
2013-03-03 12:46:00,62.6,47.6,29.98,NNW,333,1.0,12.0,58,0.00,,,0.01,Wunderground v.1.15,2013-03-03 17:46:00,
2013-03-03 12:47:00,62.6,48.1,29.98,North,355,4.0,12.0,59,0.00,,,0.01,Wunderground v.1.15,2013-03-03 17:47:00,
2013-03-03 12:50:00,62.7,47.7,29.97,West,270,5.0,8.0,58,0.00,,,0.01,Wunderground v.1.15,2013-03-03 17:50:00,
2013-03-03 12:51:00,62.6,47.1,29.97,WNW,287,0.0,8.0,57,0.00,,,0.01,Wunderground v.1.15,2013-03-03 17:51:00,
2013-03-03 12:52:00,62.7,48.2,29.97,NNW,335,4.0,10.0,59,0.00,,,0.01,Wunderground v.1.15,2013-03-03 17:52:00,
2013-03-03 12:53:00,62.7,47.7,29.97,WNW,287,3.0,10.0,58,0.00,,,0.01,Wunderground v.1.15,2013-03-03 17:53:00,
2013-03-03 12:56:00,62.3,46.4,29.97,NNW,345,8.0,13.0,56,0.00,,,0.01,Wunderground v.1.15,2013-03-03 17:56:00,
2013-03-03 12:57:00,62.1,46.2,29.97,NW,326,9.0,13.0,56,0.00,,,0.01,Wunderground v.1.15,2013-03-03 17:57:00,
2013-03-03 12:58:00,62.1,47.1,29.97,NW,319,1.0,13.0,58,0.00,,,0.01,Wunderground v.1.15,2013-03-03 17:58:00,
2013-03-03 13:01:00,62.5,47.5,29.98,NW,316,2.0,14.0,58,0.00,,,0.01,Wunderground v.1.15,2013-03-03 18:01:00,
2013-03-03 13:02:00,62.2,46.3,29.97,NW,308,8.0,14.0,56,0.00,,,0.01,Wunderground v.1.15,2013-03-03 18:02:00,
2013-03-03 13:03:00,62.1,46.7,29.97,NW,321,1.0,14.0,57,0.00,,,0.01,Wunderground v.1.15,2013-03-03 18:03:00,
2013-03-03 13:04:00,62.1,47.1,29.97,North,349,4.0,14.0,58,0.00,,,0.01,Wunderground v.1.15,2013-03-03 18:04:00,
2013-03-03 13:07:00,62.2,47.7,29.97,North,360,6.0,14.0,59,0.00,,,0.01,Wunderground v.1.15,2013-03-03 18:07:00,
2013-03-03 13:08:00,62.4,47.9,29.97,NW,309,7.0,14.0,59,0.00,,,0.01,Wunderground v.1.15,2013-03-03 18:08:00,
2013-03-03 13:09:00,62.5,47.1,29.97,NNW,331,0.0,4.0,57,0.00,,,0.01,Wunderground v.1.15,2013-03-03 18:09:00,
2013-03-03 13:12:00,62.7,48.6,29.97,NW,314,0.0,5.0,60,0.00,,,0.01,Wunderground v.1.15,2013-03-03 18:12:00,
2013-03-03 13:14:00,62.9,47.4,29.97,NW,317,2.0,5.0,57,0.00,,,0.01,Wunderground v.1.15,2013-03-03 18:14:00,
2013-03-03 13:17:00,62.5,47.1,29.97,NW,320,1.0,8.0,57,0.00,,,0.01,Wunderground v.1.15,2013-03-03 18:17:00,
2013-03-03 13:19:00,62.5,47.5,29.97,NW,316,9.0,11.0,58,0.00,,,0.01,Wunderground v.1.15,2013-03-03 18:19:00,
2013-03-03 13:20:00,62.5,47.5,29.97,NNW,333,10.0,11.0,58,0.00,,,0.01,Wunderground v.1.15,2013-03-03 18:20:00,
2013-03-03 13:23:00,62.6,47.6,29.98,WNW,286,5.0,11.0,58,0.00,,,0.01,Wunderground v.1.15,2013-03-03 18:23:00,
2013-03-03 13:24:00,62.9,47.4,29.97,NNW,330,1.0,11.0,57,0.00,,,0.01,Wunderground v.1.15,2013-03-03 18:24:00,
2013-03-03 13:26:00,62.9,47.4,29.98,NW,314,1.0,11.0,57,0.00,,,0.01,Wunderground v.1.15,2013-03-03 18:26:00,
2013-03-03 13:28:00,63.0,47.1,29.98,NNW,327,0.0,11.0,56,0.00,,,0.01,Wunderground v.1.15,2013-03-03 18:28:00,
2013-03-03 13:29:00,62.7,46.3,29.98,NW,325,1.0,11.0,55,0.00,,,0.01,Wunderground v.1.15,2013-03-03 18:29:00,
2013-03-03 13:30:00,62.2,45.8,29.98,NW,306,6.0,6.0,55,0.00,,,0.01,Wunderground v.1.15,2013-03-03 18:30:00,
2013-03-03 13:31:00,61.9,45.5,29.98,NW,315,0.0,6.0,55,0.00,,,0.01,Wunderground v.1.15,2013-03-03 18:31:00,
2013-03-03 13:34:00,61.1,45.7,29.97,WNW,301,0.0,6.0,57,0.00,,,0.01,Wunderground v.1.15,2013-03-03 18:34:00,
2013-03-03 13:35:00,61.2,47.2,29.97,NW,319,0.0,6.0,60,0.00,,,0.01,Wunderground v.1.15,2013-03-03 18:35:00,
2013-03-03 13:36:00,61.7,47.7,29.97,NW,316,0.0,6.0,60,0.00,,,0.01,Wunderground v.1.15,2013-03-03 18:36:00,
2013-03-03 13:39:00,62.3,47.3,29.97,WNW,287,4.0,4.0,58,0.00,,,0.01,Wunderground v.1.15,2013-03-03 18:39:00,
2013-03-03 13:40:00,62.2,47.2,29.97,NW,304,0.0,4.0,58,0.00,,,0.01,Wunderground v.1.15,2013-03-03 18:40:00,
2013-03-03 13:41:00,61.9,46.0,29.97,NW,325,2.0,9.0,56,0.00,,,0.01,Wunderground v.1.15,2013-03-03 18:41:00,
2013-03-03 13:44:00,61.0,44.7,29.97,NNW,332,4.0,9.0,55,0.00,,,0.01,Wunderground v.1.15,2013-03-03 18:44:00,
2013-03-03 13:45:00,60.9,45.6,29.97,NW,323,4.0,9.0,57,0.00,,,0.01,Wunderground v.1.15,2013-03-03 18:45:00,
2013-03-03 13:47:00,61.7,47.2,29.97,NW,317,0.0,9.0,59,0.00,,,0.01,Wunderground v.1.15,2013-03-03 18:47:00,
2013-03-03 13:50:00,63.5,47.0,29.97,NW,304,4.0,4.0,55,0.00,,,0.01,Wunderground v.1.15,2013-03-03 18:50:00,
2013-03-03 13:51:00,63.7,47.7,29.97,WNW,296,0.0,5.0,56,0.00,,,0.01,Wunderground v.1.15,2013-03-03 18:51:00,
2013-03-03 13:53:00,64.2,47.2,29.97,West,269,0.0,5.0,54,0.00,,,0.01,Wunderground v.1.15,2013-03-03 18:53:00,
2013-03-03 13:55:00,64.0,45.5,29.97,WNW,289,0.0,6.0,51,0.00,,,0.01,Wunderground v.1.15,2013-03-03 18:55:00,
2013-03-03 13:57:00,63.8,47.8,29.97,NW,305,0.0,6.0,56,0.00,,,0.01,Wunderground v.1.15,2013-03-03 18:57:00,
2013-03-03 13:58:00,63.7,46.7,29.97,NW,311,0.0,6.0,54,0.00,,,0.01,Wunderground v.1.15,2013-03-03 18:58:00,
2013-03-03 14:00:00,63.3,46.4,29.97,NW,311,7.0,7.0,54,0.00,,,0.01,Wunderground v.1.15,2013-03-03 19:00:00,
2013-03-03 14:01:00,63.2,46.3,29.97,NW,317,0.0,7.0,54,0.00,,,0.01,Wunderground v.1.15,2013-03-03 19:01:00,
2013-03-03 14:02:00,63.1,46.2,29.97,NNW,327,0.0,7.0,54,0.00,,,0.01,Wunderground v.1.15,2013-03-03 19:02:00,
2013-03-03 14:04:00,62.7,45.3,29.97,NNW,327,0.0,12.0,53,0.00,,,0.01,Wunderground v.1.15,2013-03-03 19:04:00,
2013-03-03 14:05:00,62.6,45.7,29.97,NW,321,6.0,12.0,54,0.00,,,0.01,Wunderground v.1.15,2013-03-03 19:05:00,
2013-03-03 14:07:00,62.4,45.5,29.97,NW,321,0.0,12.0,54,0.00,,,0.01,Wunderground v.1.15,2013-03-03 19:07:00,
2013-03-03 14:09:00,62.5,46.6,29.96,West,274,2.0,2.0,56,0.00,,,0.01,Wunderground v.1.15,2013-03-03 19:09:00,
2013-03-03 14:11:00,62.7,46.8,29.96,NNW,336,1.0,9.0,56,0.00,,,0.01,Wunderground v.1.15,2013-03-03 19:11:00,
2013-03-03 14:12:00,63.1,46.7,29.96,West,264,6.0,9.0,55,0.00,,,0.01,Wunderground v.1.15,2013-03-03 19:12:00,
2013-03-03 14:15:00,64.1,47.1,29.96,NNW,329,7.0,9.0,54,0.00,,,0.01,Wunderground v.1.15,2013-03-03 19:15:00,
2013-03-03 14:16:00,64.3,46.3,29.96,NW,324,2.0,10.0,52,0.00,,,0.01,Wunderground v.1.15,2013-03-03 19:16:00,
2013-03-03 14:18:00,64.4,46.9,29.96,NNW,329,5.0,10.0,53,0.00,,,0.01,Wunderground v.1.15,2013-03-03 19:18:00,
2013-03-03 14:19:00,64.5,47.0,29.96,NW,319,1.0,10.0,53,0.00,,,0.01,Wunderground v.1.15,2013-03-03 19:19:00,
2013-03-03 14:21:00,64.7,45.6,29.96,WSW,246,5.0,5.0,50,0.00,,,0.01,Wunderground v.1.15,2013-03-03 19:21:00,
2013-03-03 14:22:00,64.8,46.2,29.96,West,261,1.0,5.0,51,0.00,,,0.01,Wunderground v.1.15,2013-03-03 19:22:00,
2013-03-03 14:23:00,64.7,45.6,29.96,West,263,0.0,7.0,50,0.00,,,0.01,Wunderground v.1.15,2013-03-03 19:23:00,
2013-03-03 14:24:00,64.6,46.1,29.96,West,261,0.0,7.0,51,0.00,,,0.01,Wunderground v.1.15,2013-03-03 19:24:00,
2013-03-03 14:26:00,64.5,46.5,29.96,West,263,1.0,9.0,52,0.00,,,0.01,Wunderground v.1.15,2013-03-03 19:26:00,
2013-03-03 14:27:00,64.4,45.3,29.97,West,276,0.0,9.0,50,0.00,,,0.01,Wunderground v.1.15,2013-03-03 19:27:00,
2013-03-03 14:28:00,64.3,45.8,29.97,WNW,284,0.0,9.0,51,0.00,,,0.01,Wunderground v.1.15,2013-03-03 19:28:00,
2013-03-03 14:31:00,64.6,45.5,29.96,NW,308,4.0,7.0,50,0.00,,,0.01,Wunderground v.1.15,2013-03-03 19:31:00,
2013-03-03 14:32:00,64.5,45.4,29.96,West,280,0.0,9.0,50,0.00,,,0.01,Wunderground v.1.15,2013-03-03 19:32:00,
2013-03-03 14:34:00,63.9,44.9,29.96,West,269,7.0,9.0,50,0.00,,,0.01,Wunderground v.1.15,2013-03-03 19:34:00,
2013-03-03 14:37:00,62.8,44.9,29.96,SW,223,2.0,9.0,52,0.00,,,0.01,Wunderground v.1.15,2013-03-03 19:37:00,
2013-03-03 14:38:00,62.5,44.6,29.96,West,274,2.0,9.0,52,0.00,,,0.01,Wunderground v.1.15,2013-03-03 19:38:00,
2013-03-03 14:39:00,62.1,44.3,29.97,West,262,4.0,9.0,52,0.00,,,0.01,Wunderground v.1.15,2013-03-03 19:39:00,
2013-03-03 14:42:00,61.2,43.9,29.97,West,266,0.0,6.0,53,0.00,,,0.01,Wunderground v.1.15,2013-03-03 19:42:00,
2013-03-03 14:43:00,61.1,44.3,29.97,West,267,0.0,6.0,54,0.00,,,0.01,Wunderground v.1.15,2013-03-03 19:43:00,
2013-03-03 14:44:00,61.0,44.7,29.97,NW,311,0.0,6.0,55,0.00,,,0.01,Wunderground v.1.15,2013-03-03 19:44:00,
2013-03-03 14:48:00,60.6,44.8,29.97,NW,325,0.0,6.0,56,0.00,,,0.01,Wunderground v.1.15,2013-03-03 19:48:00,
2013-03-03 14:49:00,60.5,44.7,29.97,WNW,299,0.0,6.0,56,0.00,,,0.01,Wunderground v.1.15,2013-03-03 19:49:00,
2013-03-03 14:53:00,60.5,44.7,29.97,NW,304,0.0,7.0,56,0.00,,,0.01,Wunderground v.1.15,2013-03-03 19:53:00,
2013-03-03 14:54:00,60.5,44.2,29.97,NW,304,0.0,7.0,55,0.00,,,0.01,Wunderground v.1.15,2013-03-03 19:54:00,
2013-03-03 14:55:00,60.6,45.3,29.97,WNW,302,1.0,7.0,57,0.00,,,0.01,Wunderground v.1.15,2013-03-03 19:55:00,
2013-03-03 14:58:00,61.7,45.8,29.97,West,278,0.0,7.0,56,0.00,,,0.01,Wunderground v.1.15,2013-03-03 19:58:00,
2013-03-03 14:59:00,61.8,45.5,29.97,NW,315,5.0,7.0,55,0.00,,,0.01,Wunderground v.1.15,2013-03-03 19:59:00,
2013-03-03 15:00:00,61.9,45.1,29.97,West,261,0.0,2.0,54,0.00,,,0.01,Wunderground v.1.15,2013-03-03 20:00:00,
2013-03-03 15:01:00,61.7,44.9,29.96,WSW,256,0.0,4.0,54,0.00,,,0.01,Wunderground v.1.15,2013-03-03 20:01:00,
2013-03-03 15:04:00,61.3,45.0,29.96,WSW,248,0.0,6.0,55,0.00,,,0.01,Wunderground v.1.15,2013-03-03 20:04:00,
2013-03-03 15:05:00,61.0,44.2,29.96,NW,312,0.0,6.0,54,0.00,,,0.01,Wunderground v.1.15,2013-03-03 20:05:00,
2013-03-03 15:06:00,60.9,44.6,29.96,NNW,336,0.0,6.0,55,0.00,,,0.01,Wunderground v.1.15,2013-03-03 20:06:00,
2013-03-03 15:09:00,60.7,44.4,29.96,NW,318,0.0,6.0,55,0.00,,,0.01,Wunderground v.1.15,2013-03-03 20:09:00,
2013-03-03 15:11:00,60.5,44.7,29.97,WNW,290,4.0,6.0,56,0.00,,,0.01,Wunderground v.1.15,2013-03-03 20:11:00,
2013-03-03 15:12:00,60.5,45.2,29.97,West,281,0.0,6.0,57,0.00,,,0.01,Wunderground v.1.15,2013-03-03 20:12:00,
2013-03-03 15:14:00,60.4,44.6,29.97,NW,308,0.0,6.0,56,0.00,,,0.01,Wunderground v.1.15,2013-03-03 20:14:00,
2013-03-03 15:15:00,60.4,44.6,29.97,NW,310,0.0,6.0,56,0.00,,,0.01,Wunderground v.1.15,2013-03-03 20:15:00,
2013-03-03 15:16:00,60.4,45.1,29.97,NW,324,6.0,6.0,57,0.00,,,0.01,Wunderground v.1.15,2013-03-03 20:16:00,
2013-03-03 15:18:00,60.3,45.0,29.97,WNW,284,0.0,6.0,57,0.00,,,0.01,Wunderground v.1.15,2013-03-03 20:18:00,
2013-03-03 15:20:00,60.4,45.1,29.97,NW,317,0.0,1.0,57,0.00,,,0.01,Wunderground v.1.15,2013-03-03 20:20:00,
2013-03-03 15:21:00,60.4,45.1,29.97,NW,325,0.0,2.0,57,0.00,,,0.01,Wunderground v.1.15,2013-03-03 20:21:00,
2013-03-03 15:23:00,60.3,44.5,29.97,West,274,2.0,11.0,56,0.00,,,0.01,Wunderground v.1.15,2013-03-03 20:23:00,
2013-03-03 15:25:00,60.2,44.0,29.97,West,271,1.0,11.0,55,0.00,,,0.01,Wunderground v.1.15,2013-03-03 20:25:00,
2013-03-03 15:26:00,60.2,44.9,29.97,West,280,0.0,11.0,57,0.00,,,0.01,Wunderground v.1.15,2013-03-03 20:26:00,
2013-03-03 15:29:00,60.3,45.0,29.97,West,278,6.0,11.0,57,0.00,,,0.01,Wunderground v.1.15,2013-03-03 20:29:00,
2013-03-03 15:30:00,60.3,45.0,29.97,West,269,0.0,1.0,57,0.00,,,0.01,Wunderground v.1.15,2013-03-03 20:30:00,
2013-03-03 15:31:00,60.3,44.5,29.97,West,273,0.0,4.0,56,0.00,,,0.01,Wunderground v.1.15,2013-03-03 20:31:00,
2013-03-03 15:33:00,60.3,45.0,29.97,WNW,286,1.0,4.0,57,0.00,,,0.01,Wunderground v.1.15,2013-03-03 20:33:00,
2013-03-03 15:34:00,60.4,45.1,29.97,West,259,2.0,5.0,57,0.00,,,0.01,Wunderground v.1.15,2013-03-03 20:34:00,
2013-03-03 15:36:00,60.5,45.2,29.97,West,268,5.0,5.0,57,0.00,,,0.01,Wunderground v.1.15,2013-03-03 20:36:00,
2013-03-03 15:38:00,60.5,45.2,29.97,WNW,287,2.0,5.0,57,0.00,,,0.01,Wunderground v.1.15,2013-03-03 20:38:00,
2013-03-03 15:39:00,60.5,45.2,29.97,NW,319,0.0,1.0,57,0.00,,,0.01,Wunderground v.1.15,2013-03-03 20:39:00,
2013-03-03 15:41:00,60.5,44.7,29.97,WNW,298,0.0,6.0,56,0.00,,,0.01,Wunderground v.1.15,2013-03-03 20:41:00,
2013-03-03 15:43:00,60.5,45.2,29.97,WNW,299,0.0,6.0,57,0.00,,,0.01,Wunderground v.1.15,2013-03-03 20:43:00,
2013-03-03 15:45:00,60.5,45.6,29.97,NW,304,1.0,6.0,58,0.00,,,0.01,Wunderground v.1.15,2013-03-03 20:45:00,
2013-03-03 15:46:00,60.6,45.3,29.97,NW,313,1.0,6.0,57,0.00,,,0.01,Wunderground v.1.15,2013-03-03 20:46:00,
2013-03-03 15:48:00,60.8,45.5,29.97,WNW,282,0.0,6.0,57,0.00,,,0.01,Wunderground v.1.15,2013-03-03 20:48:00,
2013-03-03 15:50:00,61.1,46.2,29.97,NW,311,1.0,4.0,58,0.00,,,0.01,Wunderground v.1.15,2013-03-03 20:50:00,
2013-03-03 15:52:00,61.7,47.2,29.97,WNW,285,0.0,4.0,59,0.00,,,0.01,Wunderground v.1.15,2013-03-03 20:52:00,
2013-03-03 15:53:00,62.3,47.3,29.97,North,9,1.0,4.0,58,0.00,,,0.01,Wunderground v.1.15,2013-03-03 20:53:00,
2013-03-03 15:54:00,62.6,47.6,29.97,NNW,341,0.0,4.0,58,0.00,,,0.01,Wunderground v.1.15,2013-03-03 20:54:00,
2013-03-03 15:55:00,63.1,46.7,29.97,WNW,294,0.0,7.0,55,0.00,,,0.01,Wunderground v.1.15,2013-03-03 20:55:00,
2013-03-03 15:58:00,63.5,47.0,29.97,WSW,242,1.0,9.0,55,0.00,,,0.01,Wunderground v.1.15,2013-03-03 20:58:00,
2013-03-03 15:59:00,63.6,46.1,29.97,West,269,1.0,9.0,53,0.00,,,0.01,Wunderground v.1.15,2013-03-03 20:59:00,
2013-03-03 16:02:00,64.0,46.5,29.97,NW,314,5.0,8.0,53,0.00,,,0.01,Wunderground v.1.15,2013-03-03 21:02:00,
2013-03-03 16:03:00,64.1,46.1,29.97,NW,312,0.0,8.0,52,0.00,,,0.01,Wunderground v.1.15,2013-03-03 21:03:00,
2013-03-03 16:04:00,64.4,46.4,29.97,WSW,243,2.0,8.0,52,0.00,,,0.01,Wunderground v.1.15,2013-03-03 21:04:00,
2013-03-03 16:07:00,64.5,46.5,29.97,WSW,252,1.0,8.0,52,0.00,,,0.01,Wunderground v.1.15,2013-03-03 21:07:00,
2013-03-03 16:08:00,64.4,45.3,29.97,West,265,0.0,8.0,50,0.00,,,0.01,Wunderground v.1.15,2013-03-03 21:08:00,
2013-03-03 16:09:00,64.4,45.3,29.97,NW,317,2.0,8.0,50,0.00,,,0.01,Wunderground v.1.15,2013-03-03 21:09:00,
2013-03-03 16:10:00,64.4,46.9,29.97,West,277,2.0,2.0,53,0.00,,,0.01,Wunderground v.1.15,2013-03-03 21:10:00,
2013-03-03 16:12:00,64.2,46.2,29.97,WNW,302,0.0,7.0,52,0.00,,,0.01,Wunderground v.1.15,2013-03-03 21:12:00,
2013-03-03 16:13:00,63.9,45.4,29.97,SW,236,2.0,7.0,51,0.00,,,0.01,Wunderground v.1.15,2013-03-03 21:13:00,
2013-03-03 16:16:00,63.3,44.9,29.97,West,269,8.0,9.0,51,0.00,,,0.01,Wunderground v.1.15,2013-03-03 21:16:00,
2013-03-03 16:17:00,62.8,44.9,29.98,WSW,254,0.0,9.0,52,0.00,,,0.01,Wunderground v.1.15,2013-03-03 21:17:00,
2013-03-03 16:18:00,62.4,44.5,29.98,West,260,4.0,9.0,52,0.00,,,0.01,Wunderground v.1.15,2013-03-03 21:18:00,
2013-03-03 16:21:00,61.7,44.9,29.98,West,269,1.0,4.0,54,0.00,,,0.01,Wunderground v.1.15,2013-03-03 21:21:00,
2013-03-03 16:22:00,61.4,44.6,29.98,West,269,0.0,4.0,54,0.00,,,0.01,Wunderground v.1.15,2013-03-03 21:22:00,
2013-03-03 16:23:00,61.1,45.3,29.98,West,277,0.0,7.0,56,0.00,,,0.01,Wunderground v.1.15,2013-03-03 21:23:00,
2013-03-03 16:26:00,60.9,44.6,29.98,SSW,196,0.0,7.0,55,0.00,,,0.01,Wunderground v.1.15,2013-03-03 21:26:00,
2013-03-03 16:28:00,60.7,44.9,29.98,NW,304,1.0,9.0,56,0.00,,,0.01,Wunderground v.1.15,2013-03-03 21:28:00,
2013-03-03 16:30:00,60.6,44.8,29.98,WNW,288,0.0,1.0,56,0.00,,,0.01,Wunderground v.1.15,2013-03-03 21:30:00,
2013-03-03 16:31:00,60.6,44.3,29.98,NW,315,0.0,6.0,55,0.00,,,0.01,Wunderground v.1.15,2013-03-03 21:31:00,
2013-03-03 16:33:00,60.7,45.4,29.98,West,279,0.0,6.0,57,0.00,,,0.01,Wunderground v.1.15,2013-03-03 21:33:00,
2013-03-03 16:35:00,60.8,45.5,29.98,NW,306,0.0,6.0,57,0.00,,,0.01,Wunderground v.1.15,2013-03-03 21:35:00,
2013-03-03 16:36:00,60.9,46.0,29.98,NW,308,0.0,6.0,58,0.00,,,0.01,Wunderground v.1.15,2013-03-03 21:36:00,
2013-03-03 16:37:00,61.0,45.7,29.98,WNW,294,0.0,6.0,57,0.00,,,0.01,Wunderground v.1.15,2013-03-03 21:37:00,
2013-03-03 16:39:00,61.0,45.2,29.98,West,274,5.0,9.0,56,0.00,,,0.01,Wunderground v.1.15,2013-03-03 21:39:00,
2013-03-03 16:41:00,60.9,44.6,29.98,WSW,258,0.0,3.0,55,0.00,,,0.01,Wunderground v.1.15,2013-03-03 21:41:00,
2013-03-03 16:42:00,60.9,45.1,29.98,West,269,0.0,4.0,56,0.00,,,0.01,Wunderground v.1.15,2013-03-03 21:42:00,
2013-03-03 16:44:00,61.0,45.7,29.98,NW,321,0.0,4.0,57,0.00,,,0.01,Wunderground v.1.15,2013-03-03 21:44:00,
2013-03-03 16:46:00,61.2,45.4,29.99,WNW,300,2.0,4.0,56,0.00,,,0.01,Wunderground v.1.15,2013-03-03 21:46:00,
2013-03-03 16:47:00,61.3,45.5,29.99,West,264,7.0,7.0,56,0.00,,,0.01,Wunderground v.1.15,2013-03-03 21:47:00,
2013-03-03 16:48:00,61.2,45.4,29.99,West,265,0.0,7.0,56,0.00,,,0.01,Wunderground v.1.15,2013-03-03 21:48:00,
2013-03-03 16:49:00,61.2,45.4,29.99,NW,319,1.0,7.0,56,0.00,,,0.01,Wunderground v.1.15,2013-03-03 21:49:00,
2013-03-03 16:51:00,61.2,44.9,29.99,NW,305,0.0,7.0,55,0.00,,,0.01,Wunderground v.1.15,2013-03-03 21:51:00,
2013-03-03 16:53:00,61.3,45.5,29.99,WNW,284,0.0,7.0,56,0.00,,,0.01,Wunderground v.1.15,2013-03-03 21:53:00,
2013-03-03 16:55:00,61.4,45.6,29.99,West,276,4.0,7.0,56,0.00,,,0.01,Wunderground v.1.15,2013-03-03 21:55:00,
2013-03-03 16:56:00,61.3,45.0,29.99,WNW,302,1.0,7.0,55,0.00,,,0.01,Wunderground v.1.15,2013-03-03 21:56:00,
2013-03-03 16:58:00,61.1,44.8,29.99,WNW,286,0.0,7.0,55,0.00,,,0.01,Wunderground v.1.15,2013-03-03 21:58:00,
2013-03-03 16:59:00,61.0,44.7,29.99,West,281,0.0,7.0,55,0.00,,,0.01,Wunderground v.1.15,2013-03-03 21:59:00,
2013-03-03 17:00:00,60.8,45.0,29.99,West,269,2.0,2.0,56,0.00,,,0.01,Wunderground v.1.15,2013-03-03 22:00:00,
2013-03-03 17:02:00,60.6,45.3,29.99,West,266,3.0,4.0,57,0.00,,,0.01,Wunderground v.1.15,2013-03-03 22:02:00,
2013-03-03 17:03:00,60.4,45.1,29.99,WNW,285,5.0,7.0,57,0.00,,,0.01,Wunderground v.1.15,2013-03-03 22:03:00,
2013-03-03 17:04:00,60.4,45.1,29.99,WSW,257,0.0,7.0,57,0.00,,,0.01,Wunderground v.1.15,2013-03-03 22:04:00,
2013-03-03 17:05:00,60.2,45.4,29.99,West,260,0.0,7.0,58,0.00,,,0.01,Wunderground v.1.15,2013-03-03 22:05:00,
2013-03-03 17:07:00,60.0,45.2,29.99,West,279,0.0,7.0,58,0.00,,,0.01,Wunderground v.1.15,2013-03-03 22:07:00,
2013-03-03 17:09:00,59.8,45.4,29.99,WNW,299,0.0,7.0,59,0.00,,,0.01,Wunderground v.1.15,2013-03-03 22:09:00,
2013-03-03 17:12:00,59.9,44.6,29.99,West,278,0.0,5.0,57,0.00,,,0.01,Wunderground v.1.15,2013-03-03 22:12:00,
2013-03-03 17:13:00,59.9,45.1,29.99,WNW,303,0.0,5.0,58,0.00,,,0.01,Wunderground v.1.15,2013-03-03 22:13:00,
2013-03-03 17:14:00,59.9,44.6,29.99,WNW,299,0.0,5.0,57,0.00,,,0.01,Wunderground v.1.15,2013-03-03 22:14:00,
2013-03-03 17:15:00,60.0,44.7,29.99,West,263,0.0,5.0,57,0.00,,,0.01,Wunderground v.1.15,2013-03-03 22:15:00,
2013-03-03 17:17:00,60.0,44.7,29.99,West,279,0.0,5.0,57,0.00,,,0.01,Wunderground v.1.15,2013-03-03 22:17:00,
2013-03-03 17:18:00,60.0,44.7,29.99,West,279,0.0,5.0,57,0.00,,,0.01,Wunderground v.1.15,2013-03-03 22:18:00,
2013-03-03 17:20:00,60.0,45.2,29.99,NW,321,1.0,3.0,58,0.00,,,0.01,Wunderground v.1.15,2013-03-03 22:20:00,
2013-03-03 17:22:00,60.1,44.8,29.99,West,277,0.0,5.0,57,0.00,,,0.01,Wunderground v.1.15,2013-03-03 22:22:00,
2013-03-03 17:24:00,60.1,44.8,29.99,WNW,283,0.0,5.0,57,0.00,,,0.01,Wunderground v.1.15,2013-03-03 22:24:00,
2013-03-03 17:25:00,60.1,45.3,29.99,West,266,10.0,10.0,58,0.00,,,0.01,Wunderground v.1.15,2013-03-03 22:25:00,
2013-03-03 17:27:00,60.0,44.7,29.99,WSW,242,7.0,10.0,57,0.00,,,0.01,Wunderground v.1.15,2013-03-03 22:27:00,
2013-03-03 17:29:00,60.1,44.8,29.99,West,275,2.0,10.0,57,0.00,,,0.01,Wunderground v.1.15,2013-03-03 22:29:00,
2013-03-03 17:31:00,60.0,44.7,29.99,West,269,0.0,4.0,57,0.00,,,0.01,Wunderground v.1.15,2013-03-03 22:31:00,
2013-03-03 17:32:00,60.0,44.7,30.00,West,265,0.0,4.0,57,0.00,,,0.01,Wunderground v.1.15,2013-03-03 22:32:00,
2013-03-03 17:34:00,59.9,45.1,30.00,WNW,300,6.0,6.0,58,0.00,,,0.01,Wunderground v.1.15,2013-03-03 22:34:00,
2013-03-03 17:36:00,59.8,44.1,30.00,WNW,300,7.0,10.0,56,0.00,,,0.01,Wunderground v.1.15,2013-03-03 22:36:00,
2013-03-03 17:38:00,59.6,43.9,30.00,WNW,284,3.0,14.0,56,0.00,,,0.01,Wunderground v.1.15,2013-03-03 22:38:00,
2013-03-03 17:39:00,59.6,43.4,30.00,WNW,289,0.0,14.0,55,0.00,,,0.01,Wunderground v.1.15,2013-03-03 22:39:00,
2013-03-03 17:42:00,59.5,43.8,30.00,NW,309,1.0,10.0,56,0.00,,,0.01,Wunderground v.1.15,2013-03-03 22:42:00,
2013-03-03 17:43:00,59.4,43.7,30.00,NW,305,2.0,10.0,56,0.00,,,0.01,Wunderground v.1.15,2013-03-03 22:43:00,
2013-03-03 17:44:00,59.4,43.7,30.00,WNW,294,0.0,10.0,56,0.00,,,0.01,Wunderground v.1.15,2013-03-03 22:44:00,
2013-03-03 17:47:00,59.2,44.0,30.00,West,264,0.0,10.0,57,0.00,,,0.01,Wunderground v.1.15,2013-03-03 22:47:00,
2013-03-03 17:49:00,59.2,44.0,30.00,WNW,302,1.0,10.0,57,0.00,,,0.01,Wunderground v.1.15,2013-03-03 22:49:00,
2013-03-03 17:51:00,59.0,43.8,30.00,West,259,9.0,9.0,57,0.00,,,0.01,Wunderground v.1.15,2013-03-03 22:51:00,
2013-03-03 17:52:00,59.0,43.8,30.00,WNW,288,0.0,9.0,57,0.00,,,0.01,Wunderground v.1.15,2013-03-03 22:52:00,
2013-03-03 17:53:00,59.0,44.2,30.00,WNW,291,0.0,9.0,58,0.00,,,0.01,Wunderground v.1.15,2013-03-03 22:53:00,
2013-03-03 17:54:00,58.9,44.1,30.00,WNW,287,0.0,9.0,58,0.00,,,0.01,Wunderground v.1.15,2013-03-03 22:54:00,
2013-03-03 17:56:00,58.7,44.0,30.00,WNW,298,0.0,9.0,58,0.00,,,0.01,Wunderground v.1.15,2013-03-03 22:56:00,
2013-03-03 17:57:00,58.6,44.3,30.00,WNW,287,1.0,9.0,59,0.00,,,0.01,Wunderground v.1.15,2013-03-03 22:57:00,
2013-03-03 17:59:00,58.5,45.1,30.00,WNW,291,0.0,9.0,61,0.00,,,0.01,Wunderground v.1.15,2013-03-03 22:59:00,
2013-03-03 18:02:00,58.3,44.9,30.01,WNW,287,0.0,5.0,61,0.00,,,0.01,Wunderground v.1.15,2013-03-03 23:02:00,
2013-03-03 18:03:00,58.3,44.5,30.01,NNW,329,1.0,5.0,60,0.00,,,0.01,Wunderground v.1.15,2013-03-03 23:03:00,
2013-03-03 18:04:00,58.2,44.8,30.01,WNW,297,1.0,5.0,61,0.00,,,0.01,Wunderground v.1.15,2013-03-03 23:04:00,
2013-03-03 18:05:00,58.2,44.8,30.01,WNW,286,1.0,5.0,61,0.00,,,0.01,Wunderground v.1.15,2013-03-03 23:05:00,
2013-03-03 18:07:00,58.0,44.6,30.01,West,261,0.0,5.0,61,0.00,,,0.01,Wunderground v.1.15,2013-03-03 23:07:00,
2013-03-03 18:08:00,57.9,45.0,30.01,NNW,345,2.0,5.0,62,0.00,,,0.01,Wunderground v.1.15,2013-03-03 23:08:00,
2013-03-03 18:09:00,57.9,45.0,30.01,NW,324,0.0,5.0,62,0.00,,,0.01,Wunderground v.1.15,2013-03-03 23:09:00,
2013-03-03 18:11:00,57.7,44.8,30.01,WNW,285,0.0,2.0,62,0.00,,,0.01,Wunderground v.1.15,2013-03-03 23:11:00,
2013-03-03 18:13:00,57.6,45.1,30.01,WNW,294,0.0,2.0,63,0.00,,,0.01,Wunderground v.1.15,2013-03-03 23:13:00,
2013-03-03 18:16:00,57.4,44.9,30.01,WNW,288,2.0,4.0,63,0.00,,,0.01,Wunderground v.1.15,2013-03-03 23:16:00,
2013-03-03 18:17:00,57.3,44.8,30.01,WSW,254,0.0,6.0,63,0.00,,,0.01,Wunderground v.1.15,2013-03-03 23:17:00,
2013-03-03 18:18:00,57.3,44.8,30.02,WSW,245,0.0,6.0,63,0.00,,,0.01,Wunderground v.1.15,2013-03-03 23:18:00,
2013-03-03 18:21:00,57.2,44.3,30.02,NW,319,5.0,8.0,62,0.00,,,0.01,Wunderground v.1.15,2013-03-03 23:21:00,
2013-03-03 18:23:00,57.1,44.2,30.02,NW,311,0.0,8.0,62,0.00,,,0.01,Wunderground v.1.15,2013-03-03 23:23:00,
2013-03-03 18:24:00,57.0,44.1,30.02,WNW,302,4.0,8.0,62,0.00,,,0.01,Wunderground v.1.15,2013-03-03 23:24:00,
2013-03-03 18:26:00,56.9,44.0,30.02,WNW,287,0.0,12.0,62,0.00,,,0.01,Wunderground v.1.15,2013-03-03 23:26:00,
2013-03-03 18:28:00,56.9,44.0,30.02,WSW,248,0.0,12.0,62,0.00,,,0.01,Wunderground v.1.15,2013-03-03 23:28:00,
2013-03-03 18:29:00,56.8,43.9,30.02,NNW,338,2.0,12.0,62,0.00,,,0.01,Wunderground v.1.15,2013-03-03 23:29:00,
2013-03-03 18:32:00,56.7,43.8,30.02,WNW,294,0.0,6.0,62,0.00,,,0.01,Wunderground v.1.15,2013-03-03 23:32:00,
2013-03-03 18:34:00,56.6,43.7,30.02,WNW,300,0.0,6.0,62,0.00,,,0.01,Wunderground v.1.15,2013-03-03 23:34:00,
2013-03-03 18:37:00,56.5,43.6,30.02,NW,308,0.0,6.0,62,0.00,,,0.01,Wunderground v.1.15,2013-03-03 23:37:00,
2013-03-03 18:39:00,56.4,43.5,30.02,WNW,292,0.0,1.0,62,0.00,,,0.01,Wunderground v.1.15,2013-03-03 23:39:00,
2013-03-03 18:40:00,56.4,43.5,30.02,WNW,291,2.0,2.0,62,0.00,,,0.01,Wunderground v.1.15,2013-03-03 23:40:00,
2013-03-03 18:43:00,56.2,43.3,30.02,NW,306,1.0,10.0,62,0.00,,,0.01,Wunderground v.1.15,2013-03-03 23:43:00,
2013-03-03 18:44:00,56.2,43.3,30.03,NW,321,0.0,10.0,62,0.00,,,0.01,Wunderground v.1.15,2013-03-03 23:44:00,
2013-03-03 18:45:00,56.2,43.8,30.03,NW,315,0.0,10.0,63,0.00,,,0.01,Wunderground v.1.15,2013-03-03 23:45:00,
2013-03-03 18:48:00,56.0,43.6,30.03,NW,309,5.0,10.0,63,0.00,,,0.01,Wunderground v.1.15,2013-03-03 23:48:00,
2013-03-03 18:50:00,55.9,43.9,30.03,WNW,283,7.0,7.0,64,0.00,,,0.01,Wunderground v.1.15,2013-03-03 23:50:00,
2013-03-03 18:53:00,55.8,43.8,30.03,WNW,289,0.0,7.0,64,0.00,,,0.01,Wunderground v.1.15,2013-03-03 23:53:00,
2013-03-03 18:55:00,55.7,43.7,30.04,WNW,295,0.0,7.0,64,0.00,,,0.01,Wunderground v.1.15,2013-03-03 23:55:00,
2013-03-03 18:58:00,55.6,44.0,30.04,WNW,298,0.0,7.0,65,0.00,,,0.01,Wunderground v.1.15,2013-03-03 23:58:00,
2013-03-03 19:00:00,55.5,43.9,30.04,WNW,298,0.0,1.0,65,0.00,,,0.01,Wunderground v.1.15,2013-03-04 00:00:00,
2013-03-03 19:01:00,55.5,43.9,30.04,WNW,297,1.0,1.0,65,0.00,,,0.01,Wunderground v.1.15,2013-03-04 00:01:00,
2013-03-03 19:02:00,55.5,44.3,30.04,NW,304,0.0,1.0,66,0.00,,,0.01,Wunderground v.1.15,2013-03-04 00:02:00,
2013-03-03 19:04:00,55.4,44.2,30.04,WNW,296,0.0,4.0,66,0.00,,,0.01,Wunderground v.1.15,2013-03-04 00:04:00,
2013-03-03 19:06:00,55.3,44.1,30.04,NW,304,0.0,7.0,66,0.00,,,0.01,Wunderground v.1.15,2013-03-04 00:06:00,
2013-03-03 19:07:00,55.3,44.1,30.04,WNW,298,5.0,9.0,66,0.00,,,0.01,Wunderground v.1.15,2013-03-04 00:07:00,
2013-03-03 19:09:00,55.2,44.0,30.04,West,279,0.0,1.0,66,0.00,,,0.01,Wunderground v.1.15,2013-03-04 00:09:00,
2013-03-03 19:11:00,55.2,44.4,30.04,WNW,302,0.0,4.0,67,0.00,,,0.01,Wunderground v.1.15,2013-03-04 00:11:00,
2013-03-03 19:12:00,55.1,44.3,30.04,WNW,288,0.0,4.0,67,0.00,,,0.01,Wunderground v.1.15,2013-03-04 00:12:00,
2013-03-03 19:13:00,55.1,44.3,30.04,WNW,293,0.0,4.0,67,0.00,,,0.01,Wunderground v.1.15,2013-03-04 00:13:00,
2013-03-03 19:14:00,55.1,44.3,30.04,WNW,295,1.0,4.0,67,0.00,,,0.01,Wunderground v.1.15,2013-03-04 00:14:00,
2013-03-03 19:18:00,55.0,44.6,30.05,WNW,282,0.0,9.0,68,0.00,,,0.01,Wunderground v.1.15,2013-03-04 00:18:00,
2013-03-03 19:20:00,54.9,44.5,30.05,West,266,0.0,1.0,68,0.00,,,0.01,Wunderground v.1.15,2013-03-04 00:20:00,
2013-03-03 19:23:00,54.8,44.4,30.05,West,277,2.0,8.0,68,0.00,,,0.01,Wunderground v.1.15,2013-03-04 00:23:00,
2013-03-03 19:24:00,54.8,44.4,30.05,West,279,8.0,8.0,68,0.00,,,0.01,Wunderground v.1.15,2013-03-04 00:24:00,
2013-03-03 19:25:00,54.7,44.3,30.05,WNW,284,0.0,8.0,68,0.00,,,0.01,Wunderground v.1.15,2013-03-04 00:25:00,
2013-03-03 19:28:00,54.6,44.6,30.05,NW,307,0.0,8.0,69,0.00,,,0.01,Wunderground v.1.15,2013-03-04 00:28:00,
2013-03-03 19:29:00,54.6,44.6,30.05,NW,317,0.0,1.0,69,0.00,,,0.01,Wunderground v.1.15,2013-03-04 00:29:00,
2013-03-03 19:30:00,54.6,44.6,30.05,WSW,245,1.0,2.0,69,0.00,,,0.01,Wunderground v.1.15,2013-03-04 00:30:00,
2013-03-03 19:34:00,54.4,44.4,30.05,WNW,301,2.0,5.0,69,0.00,,,0.01,Wunderground v.1.15,2013-03-04 00:34:00,
2013-03-03 19:35:00,54.4,44.4,30.06,WNW,297,0.0,5.0,69,0.00,,,0.01,Wunderground v.1.15,2013-03-04 00:35:00,
2013-03-03 19:36:00,54.4,44.4,30.06,WNW,298,0.0,5.0,69,0.00,,,0.01,Wunderground v.1.15,2013-03-04 00:36:00,
2013-03-03 19:39:00,54.2,44.6,30.06,WNW,290,0.0,5.0,70,0.00,,,0.01,Wunderground v.1.15,2013-03-04 00:39:00,
2013-03-03 19:40:00,54.2,44.6,30.06,West,264,0.0,5.0,70,0.00,,,0.01,Wunderground v.1.15,2013-03-04 00:40:00,
2013-03-03 19:41:00,54.2,44.6,30.06,NW,311,0.0,5.0,70,0.00,,,0.01,Wunderground v.1.15,2013-03-04 00:41:00,
2013-03-03 19:44:00,54.1,44.5,30.06,NW,313,0.0,5.0,70,0.00,,,0.01,Wunderground v.1.15,2013-03-04 00:44:00,
2013-03-03 19:45:00,54.1,44.5,30.06,West,279,0.0,5.0,70,0.00,,,0.01,Wunderground v.1.15,2013-03-04 00:45:00,
2013-03-03 19:46:00,54.1,44.5,30.06,West,259,0.0,5.0,70,0.00,,,0.01,Wunderground v.1.15,2013-03-04 00:46:00,
2013-03-03 19:47:00,54.1,44.5,30.06,WSW,258,0.0,5.0,70,0.00,,,0.01,Wunderground v.1.15,2013-03-04 00:47:00,
2013-03-03 19:50:00,54.0,44.4,30.06,West,269,0.0,1.0,70,0.00,,,0.01,Wunderground v.1.15,2013-03-04 00:50:00,
2013-03-03 19:51:00,54.0,44.4,30.06,West,271,0.0,1.0,70,0.00,,,0.01,Wunderground v.1.15,2013-03-04 00:51:00,
2013-03-03 19:52:00,54.0,44.4,30.06,West,272,0.0,1.0,70,0.00,,,0.01,Wunderground v.1.15,2013-03-04 00:52:00,
2013-03-03 19:55:00,53.9,44.7,30.06,WNW,286,0.0,2.0,71,0.00,,,0.01,Wunderground v.1.15,2013-03-04 00:55:00,
2013-03-03 19:57:00,53.8,44.6,30.06,WNW,294,0.0,2.0,71,0.00,,,0.01,Wunderground v.1.15,2013-03-04 00:57:00,
2013-03-03 20:00:00,53.7,44.5,30.06,WNW,296,0.0,1.0,71,0.00,,,0.01,Wunderground v.1.15,2013-03-04 01:00:00,
2013-03-03 20:02:00,53.7,44.5,30.06,NW,305,0.0,2.0,71,0.00,,,0.01,Wunderground v.1.15,2013-03-04 01:02:00,
2013-03-03 20:03:00,53.7,44.5,30.06,NW,305,0.0,2.0,71,0.00,,,0.01,Wunderground v.1.15,2013-03-04 01:03:00,
2013-03-03 20:05:00,53.7,44.5,30.06,WNW,299,0.0,2.0,71,0.00,,,0.01,Wunderground v.1.15,2013-03-04 01:05:00,
2013-03-03 20:07:00,53.6,44.8,30.06,WNW,298,0.0,2.0,72,0.00,,,0.01,Wunderground v.1.15,2013-03-04 01:07:00,
2013-03-03 20:08:00,53.7,44.9,30.06,WNW,298,0.0,2.0,72,0.00,,,0.01,Wunderground v.1.15,2013-03-04 01:08:00,
2013-03-03 20:11:00,53.6,44.8,30.06,WNW,289,0.0,3.0,72,0.00,,,0.01,Wunderground v.1.15,2013-03-04 01:11:00,
2013-03-03 20:13:00,53.5,44.7,30.06,West,271,0.0,3.0,72,0.00,,,0.01,Wunderground v.1.15,2013-03-04 01:13:00,
2013-03-03 20:16:00,53.5,44.7,30.06,West,273,0.0,3.0,72,0.00,,,0.01,Wunderground v.1.15,2013-03-04 01:16:00,
2013-03-03 20:18:00,53.4,44.6,30.06,West,269,0.0,3.0,72,0.00,,,0.01,Wunderground v.1.15,2013-03-04 01:18:00,
2013-03-03 20:19:00,53.4,45.0,30.06,West,270,0.0,3.0,73,0.00,,,0.01,Wunderground v.1.15,2013-03-04 01:19:00,
2013-03-03 20:21:00,53.3,44.9,30.07,WNW,286,0.0,1.0,73,0.00,,,0.01,Wunderground v.1.15,2013-03-04 01:21:00,
2013-03-03 20:23:00,53.3,44.9,30.07,WNW,287,0.0,1.0,73,0.00,,,0.01,Wunderground v.1.15,2013-03-04 01:23:00,
2013-03-03 20:24:00,53.3,44.9,30.07,WNW,287,0.0,1.0,73,0.00,,,0.01,Wunderground v.1.15,2013-03-04 01:24:00,
2013-03-03 20:26:00,53.3,44.9,30.07,WNW,289,0.0,1.0,73,0.00,,,0.01,Wunderground v.1.15,2013-03-04 01:26:00,
2013-03-03 20:28:00,53.2,45.1,30.07,WNW,289,0.0,1.0,74,0.00,,,0.01,Wunderground v.1.15,2013-03-04 01:28:00,
2013-03-03 20:29:00,53.2,45.1,30.07,WNW,289,0.0,1.0,74,0.00,,,0.01,Wunderground v.1.15,2013-03-04 01:29:00,
2013-03-03 20:30:00,53.1,45.0,30.07,WNW,289,0.0,0.0,74,0.00,,,0.01,Wunderground v.1.15,2013-03-04 01:30:00,
2013-03-03 20:32:00,53.1,45.0,30.07,NW,306,0.0,2.0,74,0.00,,,0.01,Wunderground v.1.15,2013-03-04 01:32:00,
2013-03-03 20:34:00,53.0,45.3,30.07,NW,306,0.0,2.0,75,0.00,,,0.01,Wunderground v.1.15,2013-03-04 01:34:00,
2013-03-03 20:35:00,53.0,45.3,30.07,NW,306,0.0,2.0,75,0.00,,,0.01,Wunderground v.1.15,2013-03-04 01:35:00,
2013-03-03 20:36:00,53.0,45.3,30.07,NW,306,0.0,2.0,75,0.00,,,0.01,Wunderground v.1.15,2013-03-04 01:36:00,
2013-03-03 20:38:00,52.9,45.2,30.08,NW,306,0.0,2.0,75,0.00,,,0.01,Wunderground v.1.15,2013-03-04 01:38:00,
2013-03-03 20:40:00,52.8,45.1,30.08,WNW,302,0.0,0.0,75,0.00,,,0.01,Wunderground v.1.15,2013-03-04 01:40:00,
2013-03-03 20:41:00,52.8,45.1,30.08,WNW,302,0.0,0.0,75,0.00,,,0.01,Wunderground v.1.15,2013-03-04 01:41:00,
2013-03-03 20:42:00,52.8,45.1,30.08,WNW,286,0.0,1.0,75,0.00,,,0.01,Wunderground v.1.15,2013-03-04 01:42:00,
2013-03-03 20:43:00,52.8,45.4,30.08,NW,316,0.0,1.0,76,0.00,,,0.01,Wunderground v.1.15,2013-03-04 01:43:00,
2013-03-03 20:45:00,52.7,45.3,30.08,NW,314,0.0,1.0,76,0.00,,,0.01,Wunderground v.1.15,2013-03-04 01:45:00,
2013-03-03 20:46:00,52.7,45.3,30.08,NW,314,0.0,1.0,76,0.00,,,0.01,Wunderground v.1.15,2013-03-04 01:46:00,
2013-03-03 20:47:00,52.7,45.3,30.08,NW,304,0.0,2.0,76,0.00,,,0.01,Wunderground v.1.15,2013-03-04 01:47:00,
2013-03-03 20:49:00,52.6,45.2,30.08,NW,304,0.0,2.0,76,0.00,,,0.01,Wunderground v.1.15,2013-03-04 01:49:00,
2013-03-03 20:50:00,52.6,45.2,30.08,WSW,255,0.0,5.0,76,0.00,,,0.01,Wunderground v.1.15,2013-03-04 01:50:00,
2013-03-03 20:51:00,52.6,45.2,30.08,WSW,256,0.0,5.0,76,0.00,,,0.01,Wunderground v.1.15,2013-03-04 01:51:00,
2013-03-03 20:52:00,52.6,45.2,30.08,WSW,256,0.0,5.0,76,0.00,,,0.01,Wunderground v.1.15,2013-03-04 01:52:00,
2013-03-03 20:54:00,52.5,45.2,30.08,WSW,257,0.0,5.0,76,0.00,,,0.01,Wunderground v.1.15,2013-03-04 01:54:00,
2013-03-03 20:55:00,52.5,45.2,30.08,WSW,257,0.0,5.0,76,0.00,,,0.01,Wunderground v.1.15,2013-03-04 01:55:00,
2013-03-03 20:56:00,52.5,45.2,30.08,WSW,257,0.0,5.0,76,0.00,,,0.01,Wunderground v.1.15,2013-03-04 01:56:00,
2013-03-03 20:57:00,52.5,45.2,30.08,WSW,257,0.0,5.0,76,0.00,,,0.01,Wunderground v.1.15,2013-03-04 01:57:00,
2013-03-03 21:01:00,52.4,45.4,30.08,WNW,290,0.0,2.0,77,0.00,,,0.01,Wunderground v.1.15,2013-03-04 02:01:00,
2013-03-03 21:02:00,52.4,45.4,30.08,WNW,290,0.0,2.0,77,0.00,,,0.01,Wunderground v.1.15,2013-03-04 02:02:00,
2013-03-03 21:06:00,52.4,45.4,30.08,West,269,0.0,2.0,77,0.00,,,0.01,Wunderground v.1.15,2013-03-04 02:06:00,
2013-03-03 21:07:00,52.4,45.4,30.08,West,269,0.0,2.0,77,0.00,,,0.01,Wunderground v.1.15,2013-03-04 02:07:00,
2013-03-03 21:11:00,52.3,45.3,30.08,WNW,288,0.0,1.0,77,0.00,,,0.01,Wunderground v.1.15,2013-03-04 02:11:00,
2013-03-03 21:12:00,52.2,45.2,30.08,WNW,289,0.0,1.0,77,0.00,,,0.01,Wunderground v.1.15,2013-03-04 02:12:00,
2013-03-03 21:16:00,52.2,45.5,30.09,West,273,0.0,1.0,78,0.00,,,0.01,Wunderground v.1.15,2013-03-04 02:16:00,
2013-03-03 21:17:00,52.1,45.4,30.09,West,279,0.0,1.0,78,0.00,,,0.01,Wunderground v.1.15,2013-03-04 02:17:00,
2013-03-03 21:18:00,52.1,45.4,30.09,West,279,0.0,1.0,78,0.00,,,0.01,Wunderground v.1.15,2013-03-04 02:18:00,
2013-03-03 21:22:00,51.9,45.6,30.09,West,278,0.0,2.0,79,0.00,,,0.01,Wunderground v.1.15,2013-03-04 02:22:00,
2013-03-03 21:23:00,51.9,45.6,30.09,WNW,300,0.0,2.0,79,0.00,,,0.01,Wunderground v.1.15,2013-03-04 02:23:00,
2013-03-03 21:27:00,51.9,45.6,30.09,WNW,290,0.0,2.0,79,0.00,,,0.01,Wunderground v.1.15,2013-03-04 02:27:00,
2013-03-03 21:28:00,51.9,45.6,30.09,WNW,292,1.0,2.0,79,0.00,,,0.01,Wunderground v.1.15,2013-03-04 02:28:00,
2013-03-03 21:32:00,51.8,45.5,30.10,WNW,298,0.0,1.0,79,0.00,,,0.01,Wunderground v.1.15,2013-03-04 02:32:00,
2013-03-03 21:34:00,51.8,45.5,30.10,WNW,298,0.0,2.0,79,0.00,,,0.01,Wunderground v.1.15,2013-03-04 02:34:00,
2013-03-03 21:37:00,51.7,45.7,30.10,NW,304,0.0,2.0,80,0.00,,,0.01,Wunderground v.1.15,2013-03-04 02:37:00,
2013-03-03 21:39:00,51.7,45.7,30.10,WNW,302,0.0,2.0,80,0.00,,,0.01,Wunderground v.1.15,2013-03-04 02:39:00,
2013-03-03 21:41:00,51.7,45.7,30.10,WNW,297,0.0,0.0,80,0.00,,,0.01,Wunderground v.1.15,2013-03-04 02:41:00,
2013-03-03 21:42:00,51.6,45.6,30.10,WNW,300,0.0,0.0,80,0.00,,,0.01,Wunderground v.1.15,2013-03-04 02:42:00,
2013-03-03 21:44:00,51.6,45.6,30.10,NW,318,0.0,4.0,80,0.00,,,0.01,Wunderground v.1.15,2013-03-04 02:44:00,
2013-03-03 21:45:00,51.6,45.6,30.10,NW,318,0.0,4.0,80,0.00,,,0.01,Wunderground v.1.15,2013-03-04 02:45:00,
2013-03-03 21:46:00,51.6,45.6,30.10,WSW,241,1.0,4.0,80,0.00,,,0.01,Wunderground v.1.15,2013-03-04 02:46:00,
2013-03-03 21:47:00,51.6,45.6,30.10,WSW,247,0.0,4.0,80,0.00,,,0.01,Wunderground v.1.15,2013-03-04 02:47:00,
2013-03-03 21:50:00,51.6,45.6,30.11,WSW,256,0.0,0.0,80,0.00,,,0.01,Wunderground v.1.15,2013-03-04 02:50:00,
2013-03-03 21:51:00,51.5,45.5,30.11,WNW,288,0.0,1.0,80,0.00,,,0.01,Wunderground v.1.15,2013-03-04 02:51:00,
2013-03-03 21:53:00,51.5,45.5,30.11,WNW,290,0.0,1.0,80,0.00,,,0.01,Wunderground v.1.15,2013-03-04 02:53:00,
2013-03-03 21:55:00,51.4,45.4,30.10,NW,321,0.0,1.0,80,0.00,,,0.01,Wunderground v.1.15,2013-03-04 02:55:00,
2013-03-03 21:57:00,51.4,45.8,30.11,NW,306,0.0,2.0,81,0.00,,,0.01,Wunderground v.1.15,2013-03-04 02:57:00,
2013-03-03 21:59:00,51.4,45.8,30.10,NW,306,0.0,2.0,81,0.00,,,0.01,Wunderground v.1.15,2013-03-04 02:59:00,
2013-03-03 22:00:00,51.3,45.7,30.11,NW,306,0.0,0.0,81,0.00,,,0.01,Wunderground v.1.15,2013-03-04 03:00:00,
2013-03-03 22:02:00,51.2,45.6,30.10,NW,308,0.0,2.0,81,0.00,,,0.01,Wunderground v.1.15,2013-03-04 03:02:00,
2013-03-03 22:04:00,51.1,45.5,30.10,NW,309,0.0,5.0,81,0.00,,,0.01,Wunderground v.1.15,2013-03-04 03:04:00,
2013-03-03 22:05:00,51.1,45.5,30.10,NW,309,0.0,5.0,81,0.00,,,0.01,Wunderground v.1.15,2013-03-04 03:05:00,
2013-03-03 22:07:00,51.1,45.5,30.10,NW,311,0.0,5.0,81,0.00,,,0.01,Wunderground v.1.15,2013-03-04 03:07:00,
2013-03-03 22:10:00,51.1,45.5,30.10,NW,309,0.0,0.0,81,0.00,,,0.01,Wunderground v.1.15,2013-03-04 03:10:00,
2013-03-03 22:12:00,51.1,45.5,30.10,NW,316,0.0,1.0,81,0.00,,,0.01,Wunderground v.1.15,2013-03-04 03:12:00,
2013-03-03 22:13:00,51.0,45.4,30.10,NW,316,1.0,1.0,81,0.00,,,0.01,Wunderground v.1.15,2013-03-04 03:13:00,
2013-03-03 22:15:00,51.0,45.4,30.11,NNW,327,0.0,4.0,81,0.00,,,0.01,Wunderground v.1.15,2013-03-04 03:15:00,
2013-03-03 22:17:00,51.1,45.5,30.10,NNW,327,0.0,5.0,81,0.00,,,0.01,Wunderground v.1.15,2013-03-04 03:17:00,
2013-03-03 22:18:00,51.1,45.5,30.10,NW,316,0.0,6.0,81,0.00,,,0.01,Wunderground v.1.15,2013-03-04 03:18:00,
2013-03-03 22:20:00,51.1,45.5,30.11,NW,323,3.0,5.0,81,0.00,,,0.01,Wunderground v.1.15,2013-03-04 03:20:00,
2013-03-03 22:22:00,51.1,45.5,30.11,NNW,344,0.0,5.0,81,0.00,,,0.01,Wunderground v.1.15,2013-03-04 03:22:00,
2013-03-03 22:23:00,51.1,45.1,30.11,NNW,333,2.0,5.0,80,0.00,,,0.01,Wunderground v.1.15,2013-03-04 03:23:00,
2013-03-03 22:26:00,51.0,45.0,30.11,NW,322,5.0,10.0,80,0.00,,,0.01,Wunderground v.1.15,2013-03-04 03:26:00,
2013-03-03 22:27:00,51.0,45.0,30.11,NNW,348,7.0,10.0,80,0.00,,,0.01,Wunderground v.1.15,2013-03-04 03:27:00,
2013-03-03 22:28:00,51.0,45.0,30.11,NW,309,4.0,10.0,80,0.00,,,0.01,Wunderground v.1.15,2013-03-04 03:28:00,
2013-03-03 22:29:00,51.0,45.0,30.10,NW,321,4.0,4.0,80,0.00,,,0.01,Wunderground v.1.15,2013-03-04 03:29:00,
2013-03-03 22:32:00,51.1,45.1,30.10,NNW,346,1.0,8.0,80,0.00,,,0.01,Wunderground v.1.15,2013-03-04 03:32:00,
2013-03-03 22:33:00,51.1,45.1,30.10,NW,320,0.0,8.0,80,0.00,,,0.01,Wunderground v.1.15,2013-03-04 03:33:00,
2013-03-03 22:34:00,51.1,45.1,30.11,NW,318,2.0,8.0,80,0.00,,,0.01,Wunderground v.1.15,2013-03-04 03:34:00,
2013-03-03 22:38:00,51.1,45.1,30.10,NW,323,1.0,11.0,80,0.00,,,0.01,Wunderground v.1.15,2013-03-04 03:38:00,
2013-03-03 22:40:00,51.1,45.1,30.10,NW,325,2.0,5.0,80,0.00,,,0.01,Wunderground v.1.15,2013-03-04 03:40:00,
2013-03-03 22:43:00,51.1,45.1,30.10,NW,324,0.0,7.0,80,0.00,,,0.01,Wunderground v.1.15,2013-03-04 03:43:00,
2013-03-03 22:44:00,51.1,45.1,30.10,NW,325,1.0,7.0,80,0.00,,,0.01,Wunderground v.1.15,2013-03-04 03:44:00,
2013-03-03 22:46:00,51.1,45.1,30.10,NW,321,11.0,11.0,80,0.00,,,0.01,Wunderground v.1.15,2013-03-04 03:46:00,
2013-03-03 22:48:00,51.1,45.1,30.10,NNW,342,6.0,11.0,80,0.00,,,0.01,Wunderground v.1.15,2013-03-04 03:48:00,
2013-03-03 22:49:00,51.1,44.8,30.10,NW,317,4.0,11.0,79,0.00,,,0.01,Wunderground v.1.15,2013-03-04 03:49:00,
2013-03-03 22:51:00,51.1,44.8,30.10,NW,316,2.0,10.0,79,0.00,,,0.01,Wunderground v.1.15,2013-03-04 03:51:00,
2013-03-03 22:53:00,51.1,44.8,30.10,NNW,332,0.0,10.0,79,0.00,,,0.01,Wunderground v.1.15,2013-03-04 03:53:00,
2013-03-03 22:54:00,51.1,44.8,30.10,NNW,338,7.0,10.0,79,0.00,,,0.01,Wunderground v.1.15,2013-03-04 03:54:00,
2013-03-03 22:55:00,51.1,44.8,30.10,NNW,329,0.0,10.0,79,0.00,,,0.01,Wunderground v.1.15,2013-03-04 03:55:00,
2013-03-03 22:57:00,51.1,44.5,30.10,North,9,0.0,10.0,78,0.00,,,0.01,Wunderground v.1.15,2013-03-04 03:57:00,
2013-03-03 22:58:00,51.1,44.8,30.11,North,360,0.0,10.0,79,0.00,,,0.01,Wunderground v.1.15,2013-03-04 03:58:00,
2013-03-03 22:59:00,51.0,44.7,30.10,NNW,342,0.0,4.0,79,0.00,,,0.01,Wunderground v.1.15,2013-03-04 03:59:00,
2013-03-03 23:00:00,51.0,44.7,30.10,NW,311,3.0,4.0,79,0.00,,,0.01,Wunderground v.1.15,2013-03-04 04:00:00,
2013-03-03 23:02:00,50.9,44.3,30.11,NW,311,0.0,9.0,78,0.00,,,0.01,Wunderground v.1.15,2013-03-04 04:02:00,
2013-03-03 23:03:00,50.9,44.3,30.11,NW,322,2.0,9.0,78,0.00,,,0.01,Wunderground v.1.15,2013-03-04 04:03:00,
2013-03-03 23:05:00,50.9,44.3,30.11,NNW,337,5.0,9.0,78,0.00,,,0.01,Wunderground v.1.15,2013-03-04 04:05:00,
2013-03-03 23:08:00,50.8,44.2,30.11,WNW,291,5.0,10.0,78,0.00,,,0.01,Wunderground v.1.15,2013-03-04 04:08:00,
2013-03-03 23:09:00,50.8,44.2,30.11,WNW,302,0.0,10.0,78,0.00,,,0.01,Wunderground v.1.15,2013-03-04 04:09:00,
2013-03-03 23:10:00,50.8,44.2,30.11,North,355,6.0,6.0,78,0.00,,,0.01,Wunderground v.1.15,2013-03-04 04:10:00,
2013-03-03 23:13:00,50.7,43.8,30.11,NNW,340,0.0,8.0,77,0.00,,,0.01,Wunderground v.1.15,2013-03-04 04:13:00,
2013-03-03 23:14:00,50.7,43.8,30.11,NNW,340,0.0,8.0,77,0.00,,,0.01,Wunderground v.1.15,2013-03-04 04:14:00,
2013-03-03 23:16:00,50.6,43.7,30.11,WNW,291,0.0,8.0,77,0.00,,,0.01,Wunderground v.1.15,2013-03-04 04:16:00,
2013-03-03 23:19:00,50.5,43.9,30.11,NW,304,0.0,8.0,78,0.00,,,0.01,Wunderground v.1.15,2013-03-04 04:19:00,
2013-03-03 23:21:00,50.4,43.8,30.11,NNW,328,0.0,6.0,78,0.00,,,0.01,Wunderground v.1.15,2013-03-04 04:21:00,
2013-03-03 23:24:00,50.3,44.0,30.11,NW,314,5.0,7.0,79,0.00,,,0.01,Wunderground v.1.15,2013-03-04 04:24:00,
2013-03-03 23:25:00,50.3,44.0,30.11,NW,304,4.0,7.0,79,0.00,,,0.01,Wunderground v.1.15,2013-03-04 04:25:00,
2013-03-03 23:26:00,50.3,44.0,30.11,NNW,327,0.0,7.0,79,0.00,,,0.01,Wunderground v.1.15,2013-03-04 04:26:00,
2013-03-03 23:30:00,50.2,43.9,30.11,NNW,329,0.0,4.0,79,0.00,,,0.01,Wunderground v.1.15,2013-03-04 04:30:00,
2013-03-03 23:31:00,50.2,43.9,30.11,NW,313,0.0,4.0,79,0.00,,,0.01,Wunderground v.1.15,2013-03-04 04:31:00,
2013-03-03 23:32:00,50.2,43.9,30.11,NNW,331,3.0,4.0,79,0.00,,,0.01,Wunderground v.1.15,2013-03-04 04:32:00,
2013-03-03 23:35:00,50.1,43.8,30.11,NNW,338,8.0,12.0,79,0.00,,,0.01,Wunderground v.1.15,2013-03-04 04:35:00,
2013-03-03 23:36:00,50.0,43.7,30.11,NNW,340,6.0,12.0,79,0.00,,,0.01,Wunderground v.1.15,2013-03-04 04:36:00,
2013-03-03 23:37:00,50.0,43.7,30.11,NW,307,4.0,12.0,79,0.00,,,0.01,Wunderground v.1.15,2013-03-04 04:37:00,
2013-03-03 23:40:00,50.0,43.7,30.11,NW,325,4.0,6.0,79,0.00,,,0.01,Wunderground v.1.15,2013-03-04 04:40:00,
2013-03-03 23:42:00,49.9,43.6,30.11,NW,323,0.0,6.0,79,0.00,,,0.01,Wunderground v.1.15,2013-03-04 04:42:00,
2013-03-03 23:43:00,49.9,43.6,30.11,NNW,332,0.0,6.0,79,0.00,,,0.01,Wunderground v.1.15,2013-03-04 04:43:00,
2013-03-03 23:45:00,49.8,43.5,30.11,NW,322,0.0,8.0,79,0.00,,,0.01,Wunderground v.1.15,2013-03-04 04:45:00,
2013-03-03 23:46:00,49.8,43.5,30.11,NW,322,0.0,8.0,79,0.00,,,0.01,Wunderground v.1.15,2013-03-04 04:46:00,
2013-03-03 23:47:00,49.7,43.5,30.11,NNW,328,2.0,8.0,79,0.00,,,0.01,Wunderground v.1.15,2013-03-04 04:47:00,
2013-03-03 23:48:00,49.7,43.5,30.11,NW,322,2.0,8.0,79,0.00,,,0.01,Wunderground v.1.15,2013-03-04 04:48:00,
2013-03-03 23:51:00,49.6,43.4,30.11,NNW,327,5.0,5.0,79,0.00,,,0.01,Wunderground v.1.15,2013-03-04 04:51:00,
2013-03-03 23:52:00,49.6,43.4,30.11,WNW,298,5.0,5.0,79,0.00,,,0.01,Wunderground v.1.15,2013-03-04 04:52:00,
2013-03-03 23:55:00,49.5,43.3,30.11,NW,315,0.0,9.0,79,0.00,,,0.01,Wunderground v.1.15,2013-03-04 04:55:00,
2013-03-03 23:56:00,49.5,43.3,30.11,NNW,329,2.0,9.0,79,0.00,,,0.01,Wunderground v.1.15,2013-03-04 04:56:00,
2013-03-03 23:58:00,49.5,43.3,30.11,WNW,298,1.0,9.0,79,0.00,,,0.01,Wunderground v.1.15,2013-03-04 04:58:00,